KC5DAQ-28 Weather Reports


time (UTC)temp
C
wind
direction
speed
KPH
gust
KPH
rain 1hr
cm
rain 24hr
cm
rain mn
cm
humidity
%
barometer
mb
20260507110532 18 347 9.7 16.1 0.00 0.00 0.00 86 1008.5
20260507110431 18 0 9.7 16.1 0.00 0.00 0.00 86 1008.4
20260507110331 18 0 9.7 16.1 0.00 0.00 0.00 86 1008.4
20260507110232 18 350 9.7 16.1 0.00 0.00 0.00 85 1008.4
20260507110131 18 350 9.7 16.1 0.00 0.00 0.00 85 1008.3
20260507110022 18 0 9.7 16.1 0.00 0.00 0.00 85 1008.3
20260507105923 18 351 9.7 16.1 0.00 0.00 0.00 85 1008.4
20260507105821 18 0 9.7 14.5 0.00 0.00 0.00 85 1008.4
20260507105722 18 330 9.7 14.5 0.00 0.00 0.00 85 1008.4
20260507105624 18 343 9.7 14.5 0.00 0.00 0.00 85 1008.3
20260507105521 18 348 9.7 14.5 0.00 0.00 0.00 86 1008.2
20260507105422 18 358 9.7 14.5 0.00 0.00 0.00 86 1008.3
20260507105321 18 350 9.7 14.5 0.00 0.00 0.00 86 1008.0
20260507105221 18 354 9.7 14.5 0.00 0.00 0.00 85 1008.1
20260507105122 18 351 11.3 14.5 0.00 0.00 0.00 85 1008.1
20260507105022 18 10 9.7 14.5 0.00 0.00 0.00 86 1008.1
20260507104923 18 340 8.0 14.5 0.00 0.00 0.00 86 1008.3
20260507104823 18 317 6.4 14.5 0.00 0.00 0.00 86 1008.3
20260507104722 18 334 4.8 14.5 0.00 0.00 0.00 85 1008.3
20260507104621 18 345 4.8 14.5 0.00 0.00 0.00 85 1008.3
20260507104521 18 1 8.0 14.5 0.00 0.00 0.00 85 1008.2
20260507104421 18 358 9.7 14.5 0.00 0.00 0.00 85 1008.2
20260507104323 18 0 9.7 11.3 0.00 0.00 0.00 85 1008.2
20260507104222 18 357 9.7 11.3 0.00 0.00 0.00 85 1008.2
20260507104121 18 348 9.7 11.3 0.00 0.00 0.00 85 1008.0
20260507104023 18 0 9.7 11.3 0.00 0.00 0.00 85 1008.0
20260507103921 18 331 9.7 11.3 0.00 0.00 0.00 85 1008.0
20260507103821 18 345 8.0 11.3 0.00 0.00 0.00 85 1008.0
20260507103722 18 333 8.0 11.3 0.00 0.00 0.00 85 1008.0
20260507103622 18 24 6.4 11.3 0.00 0.00 0.00 85 1007.9
20260507103522 18 348 6.4 11.3 0.00 0.00 0.00 85 1008.0
20260507103421 18 0 4.8 11.3 0.00 0.00 0.00 85 1008.1
20260507103320 18 0 4.8 14.5 0.00 0.00 0.00 85 1008.1
20260507103222 18 0 4.8 14.5 0.00 0.00 0.00 85 1008.1
20260507103122 18 34 4.8 14.5 0.00 0.00 0.00 86 1008.1
20260507103022 18 0 3.2 14.5 0.00 0.00 0.00 86 1008.0
20260507102920 18 0 4.8 14.5 0.00 0.00 0.00 86 1008.1
20260507102823 18 0 8.0 14.5 0.00 0.00 0.00 86 1008.1
20260507102720 18 0 6.4 14.5 0.00 0.00 0.00 86 1008.0
20260507102618 18 0 6.4 14.5 0.00 0.00 0.00 86 1008.0
20260507102514 18 3 8.0 14.5 0.00 0.00 0.00 86 1007.9
20260507102413 18 0 8.0 14.5 0.00 0.00 0.00 85 1007.9
20260507102306 18 357 8.0 11.3 0.00 0.00 0.00 85 1007.9
20260507102202 18 358 8.0 11.3 0.00 0.00 0.00 85 1007.9
20260507102103 18 353 9.7 11.3 0.00 0.00 0.00 85 1007.9
20260507102002 18 0 9.7 17.7 0.00 0.00 0.00 85 1008.0
20260507101903 18 357 8.0 17.7 0.00 0.00 0.00 86 1008.0
20260507101802 18 4 6.4 17.7 0.00 0.00 0.00 86 1008.0
20260507101703 18 358 6.4 17.7 0.00 0.00 0.00 86 1008.0
20260507101604 18 0 8.0 17.7 0.00 0.00 0.00 86 1008.0
20260507101502 18 4 8.0 17.7 0.00 0.00 0.00 86 1007.9
20260507101404 18 10 8.0 17.7 0.00 0.00 0.00 86 1008.0
20260507101302 18 355 8.0 17.7 0.00 0.00 0.00 86 1007.9
20260507101204 18 0 9.7 17.7 0.00 0.00 0.00 86 1007.9
20260507101103 18 0 9.7 17.7 0.00 0.00 0.00 86 1008.0
20260507101003 18 0 6.4 16.1 0.00 0.00 0.00 86 1008.1
20260507100903 18 1 6.4 16.1 0.00 0.00 0.00 86 1008.1
20260507100802 18 0 8.0 16.1 0.00 0.00 0.00 86 1008.0
20260507100703 18 357 8.0 16.1 0.00 0.00 0.00 86 1008.0
20260507100603 18 354 6.4 16.1 0.00 0.00 0.00 86 1007.9
20260507100505 18 0 6.4 16.1 0.00 0.00 0.00 86 1007.9
20260507100403 18 1 8.0 16.1 0.00 0.00 0.00 86 1007.8
20260507100302 18 0 11.3 16.1 0.00 0.00 0.00 86 1007.7
20260507100203 18 347 9.7 16.1 0.00 0.00 0.00 86 1007.7
20260507100104 18 0 6.4 14.5 0.00 0.00 0.00 86 1007.6
20260507100004 18 358 8.0 16.1 0.00 0.00 0.00 86 1007.6
20260507095903 18 6 8.0 16.1 0.00 0.00 0.00 86 1007.6
20260507095802 18 8 6.4 16.1 0.00 0.00 0.00 86 1007.7
20260507095702 18 4 8.0 16.1 0.00 0.00 0.00 86 1007.7
20260507095602 18 354 9.7 16.1 0.00 0.00 0.00 86 1007.7
20260507095501 18 0 6.4 16.1 0.00 0.00 0.00 86 1007.8
20260507095401 18 331 6.4 16.1 0.00 0.00 0.00 86 1007.7
20260507095306 18 347 8.0 16.1 0.00 0.00 0.00 86 1007.7
20260507095202 18 0 9.7 16.1 0.00 0.00 0.00 86 1007.7
20260507095104 18 0 9.7 16.1 0.00 0.00 0.00 86 1007.6
20260507095005 18 340 8.0 14.5 0.00 0.00 0.00 86 1007.7
20260507094903 18 0 6.4 14.5 0.00 0.00 0.00 86 1007.7
20260507094803 18 350 6.4 14.5 0.00 0.00 0.00 86 1007.6
20260507094704 18 350 6.4 14.5 0.00 0.00 0.00 86 1007.7
20260507094603 18 16 8.0 14.5 0.00 0.00 0.00 86 1007.6
20260507094503 18 0 9.7 14.5 0.00 0.00 0.00 86 1007.5
20260507094402 18 348 9.7 14.5 0.00 0.00 0.00 86 1007.5
20260507094303 18 354 8.0 14.5 0.00 0.00 0.00 86 1007.5
20260507094205 18 0 8.0 14.5 0.00 0.00 0.00 86 1007.5
20260507094104 18 345 9.7 14.5 0.00 0.00 0.00 86 1007.4
20260507094002 18 358 9.7 14.5 0.00 0.00 0.00 86 1007.4
20260507093902 18 354 9.7 14.5 0.00 0.00 0.00 86 1007.5
20260507093803 18 353 9.7 14.5 0.00 0.00 0.00 86 1007.5
20260507093702 18 341 8.0 14.5 0.00 0.00 0.00 86 1007.5
20260507093602 18 347 9.7 14.5 0.00 0.00 0.00 86 1007.7
20260507093503 18 341 9.7 14.5 0.00 0.00 0.00 86 1007.7
20260507093402 18 344 9.7 14.5 0.00 0.00 0.00 86 1007.7
20260507093304 18 0 9.7 16.1 0.00 0.00 0.00 86 1007.7
20260507093203 18 350 8.0 16.1 0.00 0.00 0.00 86 1007.7
20260507093104 18 324 8.0 16.1 0.00 0.00 0.00 86 1007.7
20260507093001 18 341 8.0 16.1 0.00 0.00 0.00 86 1007.7
20260507092902 18 305 8.0 16.1 0.00 0.00 0.00 86 1007.6
20260507092803 18 340 8.0 17.7 0.00 0.00 0.00 86 1007.4
20260507092704 18 0 6.4 17.7 0.00 0.00 0.00 86 1007.2
20260507092603 18 21 6.4 17.7 0.00 0.00 0.00 86 1007.2
20260507092502 18 24 8.0 17.7 0.00 0.00 0.00 86 1007.2
20260507092402 18 11 9.7 17.7 0.00 0.00 0.00 86 1007.1
20260507092307 18 0 9.7 17.7 0.00 0.00 0.00 86 1007.1
20260507092202 18 345 8.0 17.7 0.00 0.00 0.00 86 1007.1
20260507092103 18 343 8.0 17.7 0.00 0.00 0.00 86 1007.1
20260507091957 18 11 8.0 17.7 0.00 0.00 0.00 86 1007.0
20260507091855 18 0 9.7 17.7 0.00 0.00 0.00 86 1007.0
20260507091754 18 348 9.7 16.1 0.00 0.00 0.00 86 1007.1
20260507091642 18 0 8.0 16.1 0.00 0.00 0.00 86 1007.1
20260507091539 18 348 8.0 16.1 0.00 0.00 0.00 86 1007.2
20260507091436 18 345 6.4 16.1 0.00 0.00 0.00 86 1007.2
20260507091332 18 348 6.4 16.1 0.00 0.00 0.00 86 1007.3
20260507091232 18 0 6.4 16.1 0.00 0.00 0.00 86 1007.2
20260507091133 18 13 6.4 16.1 0.00 0.00 0.00 86 1007.2
20260507091033 18 0 4.8 16.1 0.00 0.00 0.00 85 1007.2
20260507090931 18 20 4.8 16.1 0.00 0.00 0.00 85 1007.1
20260507090831 18 0 9.7 16.1 0.00 0.00 0.00 85 1007.1
20260507090731 18 0 11.3 16.1 0.00 0.00 0.00 85 1007.1
20260507090633 18 6 9.7 17.7 0.00 0.00 0.00 85 1007.1
20260507090532 18 0 9.7 17.7 0.00 0.00 0.00 85 1007.2
20260507090431 18 0 8.0 17.7 0.00 0.00 0.00 85 1007.2
20260507090333 18 340 6.4 17.7 0.00 0.00 0.00 85 1007.2
20260507090232 18 357 8.0 17.7 0.00 0.00 0.00 85 1007.3
20260507090131 18 1 8.0 17.7 0.00 0.00 0.00 85 1007.4
20260507090033 18 0 6.4 17.7 0.00 0.00 0.00 85 1007.3
20260507085932 18 0 6.4 17.7 0.00 0.00 0.00 85 1007.3
20260507085833 18 347 8.0 17.7 0.00 0.00 0.00 85 1007.3
20260507085726 18 0 11.3 17.7 0.00 0.00 0.00 85 1007.3
20260507085620 18 0 11.3 17.7 0.00 0.00 0.00 85 1007.3
20260507085519 18 358 9.7 14.5 0.00 0.00 0.00 85 1007.3
20260507085420 18 340 8.0 14.5 0.00 0.00 0.00 85 1007.2
20260507085320 18 343 6.4 11.3 0.00 0.00 0.00 85 1007.4
20260507085218 18 3 6.4 16.1 0.00 0.00 0.00 85 1007.3
20260507085120 18 350 6.4 16.1 0.00 0.00 0.00 85 1007.3
20260507085020 18 6 6.4 16.1 0.00 0.00 0.00 85 1007.3
20260507084918 18 3 6.4 16.1 0.00 0.00 0.00 85 1007.3
20260507084818 18 6 6.4 16.1 0.00 0.00 0.00 85 1007.3
20260507084719 18 16 8.0 16.1 0.00 0.00 0.00 85 1007.3
20260507084619 18 0 9.7 16.1 0.00 0.00 0.00 85 1007.4
20260507084520 18 0 9.7 16.1 0.00 0.00 0.00 85 1007.5
20260507084420 18 357 9.7 16.1 0.00 0.00 0.00 85 1007.6
20260507084318 18 0 9.7 16.1 0.00 0.00 0.00 85 1007.5
20260507084218 18 0 8.0 14.5 0.00 0.00 0.00 85 1007.6
20260507084120 18 355 6.4 14.5 0.00 0.00 0.00 85 1007.6
20260507084019 18 10 6.4 14.5 0.00 0.00 0.00 85 1007.6
20260507083919 18 23 6.4 14.5 0.00 0.00 0.00 85 1007.7
20260507083820 18 0 8.0 14.5 0.00 0.00 0.00 85 1007.6
20260507083719 18 7 8.0 14.5 0.00 0.00 0.00 85 1007.6
20260507083619 18 3 8.0 14.5 0.00 0.00 0.00 85 1007.6
20260507083519 18 10 9.7 16.1 0.00 0.00 0.00 85 1007.5
20260507083420 18 10 8.0 17.7 0.00 0.00 0.00 85 1007.5
20260507083318 18 0 8.0 17.7 0.00 0.00 0.00 85 1007.5
20260507083219 18 334 8.0 17.7 0.00 0.00 0.00 85 1007.4
20260507083119 18 0 9.7 19.3 0.00 0.00 0.00 85 1007.4
20260507083019 18 0 9.7 19.3 0.00 0.00 0.00 85 1007.4
20260507082918 18 3 11.3 19.3 0.00 0.00 0.00 85 1007.5
20260507082818 18 0 11.3 19.3 0.00 0.00 0.00 85 1007.5
20260507082719 18 353 9.7 19.3 0.00 0.00 0.00 85 1007.5
20260507082618 18 350 9.7 19.3 0.00 0.00 0.00 85 1007.5
20260507082519 18 327 11.3 19.3 0.00 0.00 0.00 85 1007.5
20260507082419 18 350 9.7 19.3 0.00 0.00 0.00 85 1007.5
20260507082320 18 345 12.9 19.3 0.00 0.00 0.00 85 1007.5
20260507082217 18 8 14.5 19.3 0.00 0.00 0.00 85 1007.5
20260507082117 18 338 14.5 19.3 0.00 0.00 0.00 84 1007.6
20260507082019 18 1 14.5 19.3 0.00 0.00 0.00 85 1007.6
20260507081920 18 343 12.9 19.3 0.00 0.00 0.00 84 1007.7
20260507081820 18 345 11.3 19.3 0.00 0.00 0.00 85 1007.6
20260507081717 18 0 11.3 19.3 0.00 0.00 0.00 85 1007.6
20260507081620 18 0 14.5 19.3 0.00 0.00 0.00 84 1007.5
20260507081518 18 357 14.5 19.3 0.00 0.00 0.00 84 1007.4
20260507081417 18 354 12.9 17.7 0.00 0.00 0.00 84 1007.4
20260507081318 18 354 12.9 17.7 0.00 0.00 0.00 84 1007.2
20260507081219 18 350 12.9 17.7 0.00 0.00 0.00 84 1007.2
20260507081119 18 0 11.3 17.7 0.00 0.00 0.00 84 1007.2
20260507081019 18 0 9.7 17.7 0.00 0.00 0.00 84 1007.4
20260507080918 18 353 8.0 17.7 0.00 0.00 0.00 84 1007.4
20260507080819 18 357 8.0 17.7 0.00 0.00 0.00 84 1007.5
20260507080718 18 357 8.0 17.7 0.00 0.00 0.00 84 1007.4
20260507080619 18 353 11.3 17.7 0.00 0.00 0.00 84 1007.5
20260507080518 18 0 11.3 17.7 0.00 0.00 0.00 84 1007.4
20260507080419 18 0 9.7 17.7 0.00 0.00 0.00 84 1007.5
20260507080317 18 0 12.9 17.7 0.00 0.00 0.00 84 1007.5
20260507080218 18 347 12.9 17.7 0.00 0.00 0.00 84 1007.5
20260507080119 18 345 11.3 17.7 0.00 0.00 0.00 84 1007.5
20260507080018 18 343 9.7 17.7 0.00 0.00 0.00 84 1007.6
20260507075918 18 314 9.7 17.7 0.00 0.00 0.00 84 1007.6
20260507075818 18 338 9.7 17.7 0.00 0.00 0.00 84 1007.7
20260507075717 18 331 11.3 17.7 0.00 0.00 0.00 84 1007.6
20260507075617 18 0 11.3 17.7 0.00 0.00 0.00 84 1007.5
20260507075519 18 340 11.3 19.3 0.00 0.00 0.00 84 1007.3
20260507075418 18 357 12.9 19.3 0.00 0.00 0.00 84 1007.3
20260507075317 18 338 12.9 19.3 0.00 0.00 0.00 84 1007.2
20260507075218 18 0 9.7 19.3 0.00 0.00 0.00 84 1007.3
20260507075111 18 354 9.7 19.3 0.00 0.00 0.00 84 1007.4
20260507075004 18 0 8.0 19.3 0.00 0.00 0.00 84 1007.4
20260507074901 18 0 8.0 19.3 0.00 0.00 0.00 84 1007.5
20260507074802 18 350 9.7 19.3 0.00 0.00 0.00 84 1007.5
20260507074703 18 343 11.3 19.3 0.00 0.00 0.00 84 1007.5
20260507074603 18 347 9.7 19.3 0.00 0.00 0.00 84 1007.5
20260507074503 18 345 9.7 19.3 0.00 0.00 0.00 84 1007.5
20260507074404 18 343 6.4 19.3 0.00 0.00 0.00 84 1007.5
20260507074302 18 11 6.4 19.3 0.00 0.00 0.00 84 1007.4
20260507074203 18 340 11.3 19.3 0.00 0.00 0.00 84 1007.4
20260507074102 18 353 9.7 19.3 0.00 0.00 0.00 84 1007.3
20260507074003 18 353 9.7 19.3 0.00 0.00 0.00 84 1007.3
20260507073905 18 348 11.3 19.3 0.00 0.00 0.00 84 1007.2
20260507073802 18 340 11.3 19.3 0.00 0.00 0.00 84 1007.2
20260507073703 18 337 12.9 19.3 0.00 0.00 0.00 84 1007.3
20260507073602 18 331 11.3 19.3 0.00 0.00 0.00 84 1007.3
20260507073503 18 358 11.3 22.5 0.00 0.00 0.00 84 1007.4
20260507073402 18 347 11.3 22.5 0.00 0.00 0.00 84 1007.5
20260507073304 18 326 11.3 22.5 0.00 0.00 0.00 84 1007.6
20260507073203 18 353 12.9 22.5 0.00 0.00 0.00 84 1007.7
20260507073102 18 345 12.9 22.5 0.00 0.00 0.00 84 1007.7
20260507073003 18 333 12.9 22.5 0.00 0.00 0.00 83 1007.8
20260507072903 18 0 12.9 22.5 0.00 0.00 0.00 83 1007.8
20260507072803 18 302 12.9 22.5 0.00 0.00 0.00 83 1007.8
20260507072702 18 0 14.5 22.5 0.00 0.00 0.00 83 1007.7
20260507072602 18 353 14.5 22.5 0.00 0.00 0.00 84 1007.7
20260507072503 18 0 12.9 19.3 0.00 0.00 0.00 84 1007.8
20260507072403 18 340 12.9 19.3 0.00 0.00 0.00 84 1007.8
20260507072306 18 345 14.5 19.3 0.00 0.00 0.00 84 1007.7
20260507072204 18 337 14.5 19.3 0.00 0.00 0.00 84 1007.8
20260507072102 18 333 12.9 19.3 0.00 0.00 0.00 84 1007.8
20260507072004 18 337 12.9 19.3 0.00 0.00 0.00 84 1007.9
20260507071903 18 351 12.9 19.3 0.00 0.00 0.00 84 1007.9
20260507071803 18 337 11.3 19.3 0.00 0.00 0.00 84 1007.9
20260507071702 18 341 12.9 19.3 0.00 0.00 0.00 84 1007.8
20260507071603 18 324 12.9 20.9 0.00 0.00 0.00 84 1007.8
20260507071503 18 337 11.3 20.9 0.00 0.00 0.00 84 1007.7
20260507071402 18 317 11.3 20.9 0.00 0.00 0.00 84 1007.8
20260507071303 18 358 9.7 20.9 0.00 0.00 0.00 84 1007.8
20260507071202 18 337 14.5 20.9 0.00 0.00 0.00 84 1007.8
20260507071103 18 345 16.1 20.9 0.00 0.00 0.00 83 1007.8
20260507071005 18 333 14.5 20.9 0.00 0.00 0.00 83 1007.8
20260507070903 18 334 12.9 20.9 0.00 0.00 0.00 83 1007.7
20260507070803 18 355 14.5 20.9 0.00 0.00 0.00 83 1007.7
20260507070702 18 14 14.5 20.9 0.00 0.00 0.00 83 1007.8
20260507070602 18 355 11.3 19.3 0.00 0.00 0.00 84 1007.7
20260507070503 18 343 9.7 19.3 0.00 0.00 0.00 83 1007.7
20260507070402 18 357 11.3 19.3 0.00 0.00 0.00 84 1007.8
20260507070302 18 350 12.9 19.3 0.00 0.00 0.00 84 1007.9
20260507070202 18 0 14.5 19.3 0.00 0.00 0.00 84 1007.9
20260507070003 18 327 11.3 19.3 0.00 0.00 0.00 83 1008.1
20260507065904 18 344 12.9 19.3 0.00 0.00 0.00 83 1008.1
20260507065804 18 345 14.5 19.3 0.00 0.00 0.00 83 1008.0
20260507065704 18 334 14.5 19.3 0.00 0.00 0.00 83 1008.1
20260507065602 18 327 14.5 19.3 0.00 0.00 0.00 83 1008.0
20260507065504 18 324 11.3 19.3 0.00 0.00 0.00 83 1008.1
20260507065402 18 329 9.7 19.3 0.00 0.00 0.00 83 1008.1
20260507065305 18 340 11.3 19.3 0.00 0.00 0.00 84 1008.1
20260507065203 18 320 12.9 19.3 0.00 0.00 0.00 84 1008.1
20260507065103 18 309 12.9 19.3 0.00 0.00 0.00 83 1008.2
20260507065004 18 330 14.5 20.9 0.00 0.00 0.00 83 1008.1
20260507064902 18 312 14.5 20.9 0.00 0.00 0.00 83 1008.0
20260507064802 18 336 16.1 20.9 0.00 0.00 0.00 83 1008.0
20260507064703 18 343 16.1 20.9 0.00 0.00 0.00 83 1007.9
20260507064604 18 351 14.5 20.9 0.00 0.00 0.00 83 1007.9
20260507064504 18 344 12.9 20.9 0.00 0.00 0.00 83 1007.9
20260507064402 18 348 11.3 20.9 0.00 0.00 0.00 83 1007.9
20260507064302 18 345 11.3 20.9 0.00 0.00 0.00 83 1007.9
20260507064203 18 316 14.5 24.1 0.00 0.00 0.00 83 1007.9
20260507064102 18 353 16.1 24.1 0.00 0.00 0.00 83 1007.8
20260507064002 18 353 14.5 24.1 0.00 0.00 0.00 83 1007.8
20260507063905 18 357 12.9 24.1 0.00 0.00 0.00 83 1007.8
20260507063803 18 345 12.9 24.1 0.00 0.00 0.00 83 1007.8
20260507063703 18 321 11.3 24.1 0.00 0.00 0.00 83 1007.7
20260507063602 18 345 11.3 24.1 0.00 0.00 0.00 83 1007.9
20260507063503 18 340 9.7 24.1 0.00 0.00 0.00 83 1007.9
20260507063403 18 0 14.5 24.1 0.00 0.00 0.00 83 1007.9
20260507063302 19 341 14.5 24.1 0.00 0.00 0.00 83 1008.0
20260507063203 19 312 14.5 19.3 0.00 0.00 0.00 83 1008.0
20260507063102 19 323 14.5 19.3 0.00 0.00 0.00 83 1008.1
20260507063004 19 347 12.9 19.3 0.00 0.00 0.00 83 1008.1
20260507062902 19 338 11.3 17.7 0.00 0.00 0.00 83 1008.0
20260507062802 19 290 9.7 17.7 0.00 0.00 0.00 83 1008.0
20260507062703 19 317 11.3 19.3 0.00 0.00 0.00 83 1007.9
20260507062603 19 296 11.3 19.3 0.00 0.00 0.00 83 1007.8
20260507062503 19 320 12.9 19.3 0.00 0.00 0.00 83 1007.8
20260507062403 19 334 11.3 19.3 0.00 0.00 0.00 83 1007.7
20260507062306 19 333 11.3 19.3 0.00 0.00 0.00 83 1007.8
20260507062203 19 337 9.7 19.3 0.00 0.00 0.00 83 1007.6
20260507062102 19 316 9.7 19.3 0.00 0.00 0.00 83 1007.6
20260507062003 19 347 11.3 19.3 0.00 0.00 0.00 83 1007.6
20260507061902 19 0 14.5 20.9 0.00 0.00 0.00 83 1007.6
20260507061803 19 0 14.5 20.9 0.00 0.00 0.00 83 1007.6
20260507061704 19 358 14.5 20.9 0.00 0.00 0.00 83 1007.6
20260507061603 19 351 14.5 20.9 0.00 0.00 0.00 83 1007.7
20260507061504 19 319 14.5 20.9 0.00 0.00 0.00 83 1007.8
20260507061404 19 348 14.5 22.5 0.00 0.00 0.00 83 1007.9
20260507061303 19 343 12.9 22.5 0.00 0.00 0.00 83 1007.9
20260507061202 19 314 11.3 22.5 0.00 0.00 0.00 83 1008.0
20260507061104 19 333 12.9 22.5 0.00 0.00 0.00 83 1008.0
20260507061004 19 329 14.5 22.5 0.00 0.00 0.00 83 1007.9
20260507060904 19 340 9.7 22.5 0.00 0.00 0.00 83 1007.9
20260507060803 19 324 9.7 22.5 0.00 0.00 0.00 83 1007.9
20260507060703 19 319 12.9 22.5 0.00 0.00 0.00 83 1007.8
20260507060603 19 319 16.1 22.5 0.00 0.00 0.00 83 1007.9
20260507060502 19 345 16.1 22.5 0.00 0.00 0.00 83 1007.8
20260507060402 19 310 12.9 20.9 0.00 0.00 0.00 83 1007.7
20260507060303 19 324 11.3 20.9 0.00 0.00 0.00 83 1007.6
20260507060202 19 348 11.3 20.9 0.00 0.00 0.00 83 1007.6
20260507060104 19 354 14.5 20.9 0.00 0.00 0.00 83 1007.5
20260507060003 19 351 12.9 20.9 0.00 0.00 0.00 83 1007.5
20260507055902 19 354 12.9 20.9 0.00 0.00 0.00 83 1007.6
20260507055803 19 324 14.5 19.3 0.00 0.00 0.00 83 1007.5
20260507055702 19 0 14.5 19.3 0.00 0.00 0.00 83 1007.5
20260507055603 19 341 12.9 19.3 0.00 0.00 0.00 83 1007.6
20260507055504 19 345 11.3 19.3 0.00 0.00 0.00 83 1007.5
20260507055402 19 334 12.9 19.3 0.00 0.00 0.00 83 1007.5
20260507055306 19 316 12.9 19.3 0.00 0.00 0.00 83 1007.5
20260507055202 19 337 11.3 19.3 0.00 0.00 0.00 83 1007.6
20260507055103 19 317 12.9 19.3 0.00 0.00 0.00 83 1007.6
20260507055004 19 320 12.9 22.5 0.00 0.00 0.00 83 1007.6
20260507054903 19 313 12.9 22.5 0.00 0.00 0.00 83 1007.5
20260507054802 19 337 14.5 22.5 0.00 0.00 0.00 83 1007.5
20260507054703 19 329 14.5 22.5 0.00 0.00 0.00 83 1007.5
20260507054602 19 348 12.9 22.5 0.00 0.00 0.00 83 1007.4
20260507054505 19 312 12.9 22.5 0.00 0.00 0.00 83 1007.6
20260507054402 19 336 14.5 22.5 0.00 0.00 0.00 83 1007.6
20260507054303 19 341 14.5 22.5 0.00 0.00 0.00 83 1007.6
20260507054203 19 340 14.5 22.5 0.00 0.00 0.00 83 1007.7
20260507054104 19 341 14.5 22.5 0.00 0.00 0.00 83 1007.6
20260507054002 19 324 11.3 17.7 0.00 0.00 0.00 83 1007.7
20260507053903 19 0 9.7 17.7 0.00 0.00 0.00 83 1007.6
20260507053802 19 312 8.0 17.7 0.00 0.00 0.00 83 1007.5
20260507053703 19 336 9.7 17.7 0.00 0.00 0.00 83 1007.4
20260507053603 19 347 11.3 19.3 0.00 0.00 0.00 83 1007.5
20260507053503 19 357 12.9 19.3 0.00 0.00 0.00 83 1007.4
20260507053405 19 330 11.3 19.3 0.00 0.00 0.00 83 1007.5
20260507053304 19 338 11.3 19.3 0.00 0.00 0.00 83 1007.5
20260507053203 19 345 12.9 19.3 0.00 0.00 0.00 83 1007.6
20260507053101 19 319 14.5 19.3 0.00 0.00 0.00 83 1007.6
20260507053005 19 319 11.3 19.3 0.00 0.00 0.00 83 1007.6
20260507052902 19 324 11.3 19.3 0.00 0.00 0.00 83 1007.6
20260507052802 19 306 12.9 19.3 0.00 0.00 0.00 83 1007.5
20260507052704 19 323 12.9 19.3 0.00 0.00 0.00 83 1007.5
20260507052602 19 326 12.9 19.3 0.00 0.00 0.00 83 1007.4
20260507052504 19 321 14.5 19.3 0.00 0.00 0.00 83 1007.5
20260507052403 19 345 12.9 20.9 0.00 0.00 0.00 83 1007.4
20260507052306 19 290 12.9 20.9 0.00 0.00 0.00 83 1007.3
20260507052203 19 319 12.9 20.9 0.00 0.00 0.00 83 1007.3
20260507052101 19 336 12.9 20.9 0.00 0.00 0.00 83 1007.3
20260507052003 19 310 14.5 20.9 0.00 0.00 0.00 83 1007.3
20260507051903 19 338 12.9 20.9 0.00 0.00 0.00 83 1007.3
20260507051804 19 330 12.9 20.9 0.00 0.00 0.00 83 1007.3
20260507051704 19 324 14.5 22.5 0.00 0.00 0.00 83 1007.2
20260507051602 19 330 16.1 22.5 0.00 0.00 0.00 83 1007.3
20260507051504 19 337 16.1 22.5 0.00 0.00 0.00 83 1007.4
20260507051402 19 345 16.1 22.5 0.00 0.00 0.00 83 1007.4
20260507051303 19 323 12.9 22.5 0.00 0.00 0.00 83 1007.3
20260507051203 20 309 14.5 22.5 0.00 0.00 0.00 83 1007.3
20260507051103 20 321 16.1 22.5 0.00 0.00 0.00 83 1007.3
20260507051005 20 353 17.7 22.5 0.00 0.00 0.00 83 1007.4
20260507050903 20 329 17.7 22.5 0.00 0.00 0.00 82 1007.4
20260507050804 20 347 17.7 22.5 0.00 0.00 0.00 82 1007.4
20260507050703 20 320 14.5 19.3 0.00 0.00 0.00 82 1007.4
20260507050602 20 336 16.1 19.3 0.00 0.00 0.00 82 1007.4
20260507050503 20 319 16.1 19.3 0.00 0.00 0.00 82 1007.5
20260507050404 20 341 14.5 19.3 0.00 0.00 0.00 82 1007.3
20260507050303 20 343 12.9 20.9 0.00 0.00 0.00 82 1007.4
20260507050202 20 331 12.9 20.9 0.00 0.00 0.00 82 1007.4
20260507050104 20 321 12.9 20.9 0.00 0.00 0.00 83 1007.4
20260507050003 20 321 11.3 20.9 0.00 0.00 0.00 83 1007.4
20260507045902 20 344 11.3 20.9 0.00 0.00 0.00 82 1007.4
20260507045803 20 347 9.7 20.9 0.00 0.00 0.00 82 1007.4
20260507045703 20 321 9.7 20.9 0.00 0.00 0.00 82 1007.5
20260507045603 20 310 9.7 20.9 0.00 0.00 0.00 82 1007.4
20260507045505 20 323 11.3 20.9 0.00 0.00 0.00 82 1007.4
20260507045402 20 343 12.9 20.9 0.00 0.00 0.00 82 1007.4
20260507045301 20 357 12.9 20.9 0.00 0.00 0.00 82 1007.4
20260507045202 20 338 14.5 20.9 0.00 0.00 0.00 82 1007.4
20260507045104 20 337 16.1 20.9 0.00 0.00 0.00 82 1007.4
20260507045003 20 331 14.5 20.9 0.00 0.00 0.00 82 1007.5
20260507044903 20 338 14.5 19.3 0.00 0.00 0.00 82 1007.5
20260507044804 20 341 12.9 20.9 0.00 0.00 0.00 82 1007.5
20260507044703 20 319 11.3 22.5 0.00 0.00 0.00 82 1007.4
20260507044603 20 350 11.3 22.5 0.00 0.00 0.00 82 1007.5
20260507044504 20 350 11.3 22.5 0.00 0.00 0.00 82 1007.4
20260507044402 20 333 14.5 22.5 0.00 0.00 0.00 82 1007.4
20260507044303 20 314 12.9 22.5 0.00 0.00 0.00 82 1007.5
20260507044204 20 344 12.9 22.5 0.00 0.00 0.00 82 1007.5
20260507044103 20 340 14.5 22.5 0.00 0.00 0.00 82 1007.4
20260507044003 20 336 16.1 22.5 0.00 0.00 0.00 82 1007.4
20260507043902 20 355 16.1 22.5 0.00 0.00 0.00 82 1007.5
20260507043801 20 358 14.5 22.5 0.00 0.00 0.00 82 1007.4
20260507043703 20 321 11.3 19.3 0.00 0.00 0.00 82 1007.3
20260507043603 20 324 11.3 17.7 0.00 0.00 0.00 82 1007.4
20260507043503 20 341 12.9 17.7 0.00 0.00 0.00 82 1007.4
20260507043404 20 341 14.5 17.7 0.00 0.00 0.00 82 1007.3
20260507043303 20 323 11.3 17.7 0.00 0.00 0.00 82 1007.3
20260507043203 20 341 9.7 17.7 0.00 0.00 0.00 82 1007.4
20260507043104 20 324 8.0 17.7 0.00 0.00 0.00 82 1007.3
20260507043002 20 305 8.0 17.7 0.00 0.00 0.00 82 1007.4
20260507042902 20 336 9.7 17.7 0.00 0.00 0.00 82 1007.4
20260507042803 20 343 9.7 17.7 0.00 0.00 0.00 82 1007.5
20260507042703 20 343 9.7 17.7 0.00 0.00 0.00 82 1007.4
20260507042601 20 338 11.3 17.7 0.00 0.00 0.00 82 1007.5
20260507042505 20 333 12.9 17.7 0.00 0.00 0.00 82 1007.4
20260507042404 20 336 12.9 19.3 0.00 0.00 0.00 82 1007.5
20260507042306 20 337 11.3 19.3 0.00 0.00 0.00 82 1007.5
20260507042203 20 330 11.3 19.3 0.00 0.00 0.00 82 1007.4
20260507042101 20 343 11.3 22.5 0.00 0.00 0.00 82 1007.4
20260507042004 20 333 9.7 22.5 0.00 0.00 0.00 82 1007.5
20260507041903 20 317 9.7 22.5 0.00 0.00 0.00 82 1007.5
20260507041802 20 337 11.3 22.5 0.00 0.00 0.00 82 1007.5
20260507041703 20 337 11.3 22.5 0.00 0.00 0.00 82 1007.4
20260507041603 20 348 12.9 22.5 0.00 0.00 0.00 82 1007.5
20260507041504 20 343 12.9 22.5 0.00 0.00 0.00 82 1007.4
20260507041403 20 340 14.5 22.5 0.00 0.00 0.00 82 1007.5
20260507041303 20 354 17.7 22.5 0.00 0.00 0.00 82 1007.4
20260507041203 20 321 17.7 22.5 0.00 0.00 0.00 82 1007.4
20260507041102 20 337 14.5 20.9 0.00 0.00 0.00 82 1007.3
20260507041002 20 319 12.9 19.3 0.00 0.00 0.00 82 1007.3
20260507040901 20 312 11.3 19.3 0.00 0.00 0.00 82 1007.3
20260507040803 20 321 9.7 19.3 0.00 0.00 0.00 82 1007.3
20260507040703 20 334 9.7 19.3 0.00 0.00 0.00 82 1007.3
20260507040602 20 330 9.7 19.3 0.00 0.00 0.00 82 1007.3
20260507040504 20 353 11.3 19.3 0.00 0.00 0.00 82 1007.3
20260507040401 20 348 12.9 19.3 0.00 0.00 0.00 82 1007.4
20260507040303 20 324 14.5 19.3 0.00 0.00 0.00 82 1007.4
20260507040203 20 317 14.5 19.3 0.00 0.00 0.00 82 1007.4
20260507040004 20 7 11.3 19.3 0.00 0.00 0.00 82 1007.2
20260507035902 20 321 14.5 19.3 0.00 0.00 0.00 81 1007.3
20260507035804 20 336 12.9 20.9 0.00 0.00 0.00 82 1007.4
20260507035702 20 354 11.3 20.9 0.00 0.00 0.00 81 1007.4
20260507035603 20 345 12.9 20.9 0.00 0.00 0.00 81 1007.4
20260507035502 20 348 12.9 20.9 0.00 0.00 0.00 81 1007.4
20260507035402 20 333 12.9 20.9 0.00 0.00 0.00 81 1007.3
20260507035301 20 344 14.5 24.1 0.00 0.00 0.00 81 1007.4
20260507035202 20 330 12.9 24.1 0.00 0.00 0.00 81 1007.4
20260507035104 20 314 12.9 24.1 0.00 0.00 0.00 81 1007.3
20260507035003 20 288 16.1 24.1 0.00 0.00 0.00 81 1007.3
20260507034902 20 319 14.5 24.1 0.00 0.00 0.00 81 1007.2
20260507034804 20 293 14.5 24.1 0.00 0.00 0.00 81 1007.1
20260507034701 20 353 14.5 24.1 0.00 0.00 0.00 81 1007.1
20260507034605 20 319 14.5 24.1 0.00 0.00 0.00 81 1007.1
20260507034502 20 341 16.1 24.1 0.00 0.00 0.00 81 1007.1
20260507034404 20 351 19.3 24.1 0.00 0.00 0.00 81 1007.2
20260507034304 20 327 14.5 25.7 0.00 0.00 0.00 81 1007.1
20260507034202 21 336 14.5 25.7 0.00 0.00 0.00 81 1007.2
20260507034104 20 310 16.1 25.7 0.00 0.00 0.00 81 1007.2
20260507034005 21 326 16.1 25.7 0.00 0.00 0.00 81 1007.3
20260507033902 21 324 17.7 25.7 0.00 0.00 0.00 81 1007.3
20260507033803 21 329 17.7 25.7 0.00 0.00 0.00 81 1007.1
20260507033702 21 350 17.7 25.7 0.00 0.00 0.00 80 1007.2
20260507033604 21 323 16.1 25.7 0.00 0.00 0.00 80 1007.1
20260507033502 21 303 16.1 25.7 0.00 0.00 0.00 80 1007.2
20260507033403 21 340 17.7 25.7 0.00 0.00 0.00 80 1007.2
20260507033304 21 340 14.5 25.7 0.00 0.00 0.00 80 1007.1
20260507033203 21 303 14.5 25.7 0.00 0.00 0.00 80 1007.1
20260507033105 21 344 14.5 24.1 0.00 0.00 0.00 80 1007.1
20260507033003 21 300 14.5 24.1 0.00 0.00 0.00 80 1007.1
20260507032903 21 330 16.1 24.1 0.00 0.00 0.00 80 1007.0
20260507032802 21 343 14.5 24.1 0.00 0.00 0.00 80 1007.1
20260507032704 21 341 14.5 24.1 0.00 0.00 0.00 80 1007.1
20260507032602 21 336 12.9 24.1 0.00 0.00 0.00 80 1007.0
20260507032505 21 320 14.5 24.1 0.00 0.00 0.00 80 1007.0
20260507032404 21 329 16.1 24.1 0.00 0.00 0.00 80 1007.0
20260507032305 21 321 16.1 24.1 0.00 0.00 0.00 80 1006.9
20260507032203 21 326 14.5 22.5 0.00 0.00 0.00 80 1006.8
20260507032104 21 298 14.5 24.1 0.00 0.00 0.00 80 1006.9
20260507032002 21 324 16.1 24.1 0.00 0.00 0.00 80 1006.7
20260507031904 21 307 16.1 24.1 0.00 0.00 0.00 80 1006.7
20260507031803 21 307 16.1 24.1 0.00 0.00 0.00 80 1006.8
20260507031704 21 302 14.5 24.1 0.00 0.00 0.00 80 1006.8
20260507031602 21 313 16.1 24.1 0.00 0.00 0.00 81 1006.8
20260507031504 21 313 14.5 24.1 0.00 0.00 0.00 80 1006.8
20260507031404 21 319 14.5 24.1 0.00 0.00 0.00 80 1006.8
20260507031303 21 319 17.7 24.1 0.00 0.00 0.00 80 1006.8
20260507031202 21 333 16.1 24.1 0.00 0.00 0.00 81 1006.7
20260507031103 21 327 16.1 24.1 0.00 0.00 0.00 81 1006.7
20260507031004 21 292 14.5 24.1 0.00 0.00 0.00 81 1006.8
20260507030902 21 313 12.9 22.5 0.00 0.00 0.00 81 1006.7
20260507030803 21 313 14.5 22.5 0.00 0.00 0.00 80 1006.6
20260507030702 21 324 16.1 22.5 0.00 0.00 0.00 80 1006.7
20260507030604 21 0 17.7 22.5 0.00 0.00 0.00 80 1006.6
20260507030504 21 314 16.1 25.7 0.00 0.00 0.00 80 1006.7
20260507030401 21 314 16.1 25.7 0.00 0.00 0.00 80 1006.7
20260507030302 21 307 16.1 25.7 0.00 0.00 0.00 80 1006.7
20260507030203 21 330 14.5 25.7 0.00 0.00 0.00 80 1006.6
20260507030004 21 330 12.9 25.7 0.00 0.00 0.00 80 1006.6
20260507025902 21 330 12.9 25.7 0.00 0.00 0.00 80 1006.5
20260507025803 21 320 16.1 25.7 0.00 0.00 0.00 80 1006.5
20260507025705 21 314 17.7 25.7 0.00 0.00 0.00 80 1006.5
20260507025603 21 327 14.5 25.7 0.00 0.00 0.00 80 1006.3
20260507025504 21 299 12.9 20.9 0.00 0.00 0.00 80 1006.3
20260507025403 21 337 14.5 20.9 0.00 0.00 0.00 80 1006.3
20260507025306 21 330 14.5 22.5 0.00 0.00 0.00 80 1006.2
20260507025203 21 329 14.5 22.5 0.00 0.00 0.00 80 1006.3
20260507025104 21 323 14.5 22.5 0.00 0.00 0.00 80 1006.2
20260507025005 21 334 12.9 22.5 0.00 0.00 0.00 80 1006.2
20260507024903 21 327 14.5 22.5 0.00 0.00 0.00 80 1006.2
20260507024803 21 289 12.9 22.5 0.00 0.00 0.00 80 1006.3
20260507024703 21 317 11.3 22.5 0.00 0.00 0.00 80 1006.2
20260507024603 21 285 12.9 22.5 0.00 0.00 0.00 80 1006.2
20260507024503 21 344 14.5 22.5 0.00 0.00 0.00 80 1006.2
20260507024402 21 314 12.9 22.5 0.00 0.00 0.00 80 1006.2
20260507024303 21 347 11.3 22.5 0.00 0.00 0.00 80 1006.1
20260507024202 21 295 11.3 22.5 0.00 0.00 0.00 80 1006.2
20260507024104 22 302 11.3 22.5 0.00 0.00 0.00 80 1006.1
20260507024002 21 320 11.3 22.5 0.00 0.00 0.00 80 1006.1
20260507023902 22 321 11.3 22.5 0.00 0.00 0.00 80 1006.2
20260507023802 21 336 12.9 22.5 0.00 0.00 0.00 80 1006.2
20260507023703 22 350 14.5 22.5 0.00 0.00 0.00 80 1006.1
20260507023603 22 331 14.5 22.5 0.00 0.00 0.00 80 1006.2
20260507023502 22 345 14.5 22.5 0.00 0.00 0.00 80 1006.1
20260507023403 22 326 16.1 22.5 0.00 0.00 0.00 80 1006.1
20260507023303 22 298 16.1 22.5 0.00 0.00 0.00 80 1006.0
20260507023204 22 334 12.9 22.5 0.00 0.00 0.00 80 1006.0
20260507023102 22 326 12.9 22.5 0.00 0.00 0.00 80 1006.0
20260507023002 22 319 14.5 22.5 0.00 0.00 0.00 80 1005.9
20260507022903 22 293 14.5 22.5 0.00 0.00 0.00 81 1005.9
20260507022803 22 323 14.5 20.9 0.00 0.00 0.00 81 1005.8
20260507022703 22 324 12.9 20.9 0.00 0.00 0.00 81 1005.8
20260507022603 22 320 11.3 20.9 0.00 0.00 0.00 81 1005.8
20260507022504 22 286 11.3 20.9 0.00 0.00 0.00 81 1005.8
20260507022404 22 319 11.3 20.9 0.00 0.00 0.00 81 1005.8
20260507022306 22 314 11.3 20.9 0.00 0.00 0.00 81 1005.8
20260507022204 22 312 12.9 20.9 0.00 0.00 0.00 81 1005.8
20260507022103 22 338 12.9 20.9 0.00 0.00 0.00 81 1005.8
20260507022003 22 313 11.3 20.9 0.00 0.00 0.00 81 1005.8
20260507021904 22 288 11.3 17.7 0.00 0.00 0.00 81 1005.7
20260507021803 22 338 11.3 17.7 0.00 0.00 0.00 81 1005.7
20260507021704 22 337 9.7 17.7 0.00 0.00 0.00 81 1005.6
20260507021604 22 333 11.3 17.7 0.00 0.00 0.00 81 1005.7
20260507021503 22 324 11.3 17.7 0.00 0.00 0.00 81 1005.6
20260507021404 22 321 11.3 17.7 0.00 0.00 0.00 81 1005.5
20260507021302 22 348 9.7 17.7 0.00 0.00 0.00 81 1005.4
20260507021202 22 0 11.3 17.7 0.00 0.00 0.00 81 1005.4
20260507021103 22 329 11.3 17.7 0.00 0.00 0.00 81 1005.3
20260507021002 22 350 12.9 17.7 0.00 0.00 0.00 81 1005.3
20260507020902 22 326 11.3 17.7 0.00 0.00 0.00 81 1005.4
20260507020803 22 341 9.7 17.7 0.00 0.00 0.00 81 1005.4
20260507020704 22 317 8.0 17.7 0.00 0.00 0.00 81 1005.3
20260507020603 22 312 9.7 17.7 0.00 0.00 0.00 81 1005.4
20260507020504 22 323 11.3 17.7 0.00 0.00 0.00 81 1005.4
20260507020403 22 343 11.3 19.3 0.00 0.00 0.00 81 1005.3
20260507020302 22 333 12.9 19.3 0.00 0.00 0.00 81 1005.3
20260507020204 22 350 11.3 19.3 0.00 0.00 0.00 81 1005.3
20260507020104 22 334 9.7 19.3 0.00 0.00 0.00 81 1005.2
20260507020005 22 347 9.7 19.3 0.00 0.00 0.00 81 1005.1
20260507015902 22 313 11.3 19.3 0.00 0.00 0.00 81 1005.1
20260507015803 22 338 11.3 19.3 0.00 0.00 0.00 80 1005.1
20260507015702 22 331 11.3 19.3 0.00 0.00 0.00 80 1005.1
20260507015603 22 331 12.9 19.3 0.00 0.00 0.00 80 1005.1
20260507015503 22 343 11.3 19.3 0.00 0.00 0.00 80 1005.1
20260507015403 22 350 9.7 19.3 0.00 0.00 0.00 80 1005.2
20260507015306 22 331 11.3 20.9 0.00 0.00 0.00 80 1005.2
20260507015203 22 336 12.9 20.9 0.00 0.00 0.00 80 1005.2
20260507015104 22 303 12.9 20.9 0.00 0.00 0.00 80 1005.2
20260507015004 22 323 11.3 24.1 0.00 0.00 0.00 80 1005.2
20260507014902 22 317 9.7 24.1 0.00 0.00 0.00 80 1005.2
20260507014803 22 336 12.9 24.1 0.00 0.00 0.00 80 1005.1
20260507014705 22 323 12.9 24.1 0.00 0.00 0.00 80 1005.1
20260507014603 22 336 12.9 24.1 0.00 0.00 0.00 80 1005.1
20260507014504 22 0 16.1 24.1 0.00 0.00 0.00 80 1005.1
20260507014402 22 341 16.1 24.1 0.00 0.00 0.00 80 1005.1
20260507014304 22 331 16.1 24.1 0.00 0.00 0.00 80 1005.2
20260507014202 22 347 17.7 24.1 0.00 0.00 0.00 80 1005.1
20260507014102 22 345 16.1 24.1 0.00 0.00 0.00 80 1005.1
20260507014002 22 358 14.5 22.5 0.00 0.00 0.00 80 1005.0
20260507013903 22 313 14.5 22.5 0.00 0.00 0.00 80 1005.1
20260507013804 22 336 12.9 22.5 0.00 0.00 0.00 80 1005.2
20260507013703 22 288 12.9 22.5 0.00 0.00 0.00 80 1005.1
20260507013603 22 309 12.9 22.5 0.00 0.00 0.00 80 1005.1
20260507013505 22 327 11.3 22.5 0.00 0.00 0.00 80 1005.0
20260507013402 22 309 11.3 22.5 0.00 0.00 0.00 80 1005.0
20260507013301 22 307 14.5 22.5 0.00 0.00 0.00 80 1005.0
20260507013201 22 331 16.1 22.5 0.00 0.00 0.00 81 1004.9
20260507013102 22 343 16.1 22.5 0.00 0.00 0.00 81 1004.8
20260507013004 22 355 17.7 22.5 0.00 0.00 0.00 81 1004.8
20260507012904 22 336 17.7 22.5 0.00 0.00 0.00 81 1004.8
20260507012803 22 341 14.5 22.5 0.00 0.00 0.00 81 1004.7
20260507012702 22 0 12.9 19.3 0.00 0.00 0.00 81 1004.7
20260507012603 22 333 9.7 19.3 0.00 0.00 0.00 81 1004.8
20260507012503 22 323 12.9 19.3 0.00 0.00 0.00 81 1004.7
20260507012404 22 324 14.5 20.9 0.00 0.00 0.00 81 1004.8
20260507012306 22 350 12.9 20.9 0.00 0.00 0.00 81 1004.7
20260507012203 22 358 11.3 20.9 0.00 0.00 0.00 81 1004.7
20260507012103 22 343 11.3 20.9 0.00 0.00 0.00 81 1004.7
20260507012002 22 336 11.3 20.9 0.00 0.00 0.00 81 1004.7
20260507011903 22 341 11.3 20.9 0.00 0.00 0.00 81 1004.7
20260507011802 23 358 12.9 20.9 0.00 0.00 0.00 81 1004.7
20260507011702 23 350 12.9 20.9 0.00 0.00 0.00 81 1004.7
20260507011604 23 338 14.5 20.9 0.00 0.00 0.00 81 1004.7
20260507011504 23 314 16.1 20.9 0.00 0.00 0.00 81 1004.6
20260507011403 23 341 14.5 19.3 0.00 0.00 0.00 81 1004.6
20260507011303 23 334 12.9 19.3 0.00 0.00 0.00 81 1004.6
20260507011202 23 310 9.7 16.1 0.00 0.00 0.00 81 1004.6
20260507011103 23 0 8.0 16.1 0.00 0.00 0.00 82 1004.6
20260507011003 23 288 8.0 16.1 0.00 0.00 0.00 81 1004.6
20260507010903 23 312 9.7 16.1 0.00 0.00 0.00 82 1004.5
20260507010802 23 0 9.7 16.1 0.00 0.00 0.00 81 1004.5
20260507010703 23 357 11.3 16.1 0.00 0.00 0.00 81 1004.5
20260507010604 23 317 12.9 16.1 0.00 0.00 0.00 81 1004.5
20260507010503 23 313 11.3 16.1 0.00 0.00 0.00 81 1004.5
20260507010403 23 302 9.7 16.1 0.00 0.00 0.00 81 1004.5
20260507010303 23 309 9.7 16.1 0.00 0.00 0.00 81 1004.5
20260507010203 23 289 9.7 16.1 0.00 0.00 0.00 81 1004.5
20260507010104 23 292 9.7 16.1 0.00 0.00 0.00 81 1004.5
20260507010004 23 292 9.7 16.1 0.00 0.00 0.00 81 1004.5
20260507005903 23 310 8.0 14.5 0.00 0.00 0.00 81 1004.4
20260507005802 23 299 6.4 16.1 0.00 0.00 0.00 81 1004.4
20260507005702 23 305 4.8 20.9 0.00 0.00 0.00 81 1004.4
20260507005602 23 317 6.4 20.9 0.00 0.00 0.00 81 1004.3
20260507005504 23 313 6.4 20.9 0.00 0.00 0.00 81 1004.2
20260507005401 23 343 6.4 20.9 0.00 0.00 0.00 81 1004.2
20260507005305 23 330 6.4 22.5 0.00 0.00 0.00 81 1004.2
20260507005203 23 312 6.4 22.5 0.00 0.00 0.00 81 1004.2
20260507005103 23 333 9.7 22.5 0.00 0.00 0.00 81 1004.1
20260507005003 23 309 11.3 22.5 0.00 0.00 0.00 81 1004.2
20260507004903 23 296 12.9 22.5 0.00 0.00 0.00 81 1004.1
20260507004802 23 293 11.3 22.5 0.00 0.00 0.00 81 1004.0
20260507004703 23 307 12.9 24.1 0.00 0.00 0.00 81 1004.0
20260507004603 23 334 14.5 25.7 0.00 0.00 0.00 81 1003.9
20260507004504 23 341 16.1 25.7 0.00 0.00 0.00 81 1003.9
20260507004403 23 334 14.5 25.7 0.00 0.00 0.00 81 1003.9
20260507004257 23 341 12.9 25.7 0.00 0.00 0.00 81 1003.9
20260507004154 23 345 12.9 25.7 0.00 0.00 0.00 81 1003.9
20260507004048 23 310 12.9 25.7 0.00 0.00 0.00 81 1003.9
20260507003948 23 331 14.5 25.7 0.00 0.00 0.00 81 1003.8
20260507003835 23 324 17.7 25.7 0.00 0.00 0.00 81 1003.8
20260507003733 23 300 17.7 27.4 0.00 0.00 0.00 81 1003.7
20260507003630 23 303 11.3 27.4 0.00 0.00 0.00 81 1003.6
20260507003532 23 350 14.5 27.4 0.00 0.00 0.00 81 1003.6
20260507003432 23 348 14.5 29.0 0.00 0.00 0.00 81 1003.6
20260507003331 23 343 12.9 29.0 0.00 0.00 0.00 80 1003.6
20260507003233 23 343 16.1 29.0 0.00 0.00 0.00 80 1003.6
20260507003133 24 331 20.9 29.0 0.00 0.00 0.00 81 1003.7
20260507003032 24 331 20.9 29.0 0.00 0.00 0.00 81 1003.5
20260507002933 24 331 20.9 29.0 0.00 0.00 0.00 81 1003.6
20260507002832 24 331 20.9 29.0 0.00 0.00 0.00 81 1003.6
20260507002731 24 337 19.3 29.0 0.00 0.00 0.00 81 1003.7
20260507002632 24 338 20.9 29.0 0.00 0.00 0.00 81 1003.6
20260507002532 24 348 20.9 29.0 0.00 0.00 0.00 81 1003.6
20260507002431 24 336 19.3 25.7 0.00 0.00 0.00 81 1003.6
20260507002332 24 323 17.7 25.7 0.00 0.00 0.00 81 1003.6
20260507002233 24 313 14.5 25.7 0.00 0.00 0.00 81 1003.6
20260507002132 24 320 16.1 25.7 0.00 0.00 0.00 81 1003.5
20260507002031 24 323 17.7 25.7 0.00 0.00 0.00 81 1003.5
20260507001931 24 317 19.3 25.7 0.00 0.00 0.00 81 1003.6
20260507001832 24 329 17.7 25.7 0.00 0.00 0.00 81 1003.6
20260507001733 24 331 16.1 25.7 0.00 0.00 0.00 81 1003.5
20260507001632 24 316 17.7 25.7 0.00 0.00 0.00 81 1003.4
20260507001531 24 326 19.3 25.7 0.00 0.00 0.00 81 1003.4
20260507001432 25 327 19.3 25.7 0.00 0.00 0.00 81 1003.3
20260507001331 25 330 19.3 25.7 0.00 0.00 0.00 81 1003.4
20260507001231 25 314 17.7 25.7 0.00 0.00 0.00 81 1003.3
20260507001132 25 341 16.1 24.1 0.00 0.00 0.00 81 1003.2
20260507001032 25 343 16.1 24.1 0.00 0.00 0.00 81 1003.3
20260507000933 25 329 14.5 25.7 0.00 0.00 0.00 81 1003.2
20260507000832 25 296 14.5 25.7 0.00 0.00 0.00 81 1003.2
20260507000731 25 327 12.9 29.0 0.00 0.00 0.00 81 1003.1
20260507000633 25 302 16.1 29.0 0.00 0.00 0.00 81 1003.2
20260507000532 25 299 14.5 29.0 0.00 0.00 0.00 81 1003.2
20260507000432 25 300 14.5 29.0 0.00 0.00 0.00 81 1003.1
20260507000331 25 344 16.1 29.0 0.00 0.00 0.00 80 1003.2
20260507000231 25 336 17.7 29.0 0.00 0.00 0.00 81 1003.1
20260507000132 25 347 19.3 29.0 0.00 0.00 0.00 80 1003.2
20260507000032 26 312 19.3 29.0 0.00 0.00 0.00 80 1003.2
20260506235931 26 303 20.9 29.0 0.00 0.00 0.00 80 1003.2
20260506235832 26 290 17.7 29.0 0.00 0.00 0.00 80 1003.3
20260506235731 26 321 14.5 25.7 0.00 0.00 0.00 80 1003.1
20260506235632 26 333 16.1 25.7 0.00 0.00 0.00 79 1003.2
20260506235531 26 310 19.3 25.7 0.00 0.00 0.00 79 1003.1
20260506235432 26 327 17.7 25.7 0.00 0.00 0.00 79 1003.0
20260506235332 26 0 14.5 25.7 0.00 0.00 0.00 79 1003.1
20260506235233 27 309 16.1 25.7 0.00 0.00 0.00 79 1003.1
20260506235130 27 312 17.7 25.7 0.00 0.00 0.00 79 1003.1
20260506235030 27 298 19.3 25.7 0.00 0.00 0.00 78 1003.0
20260506234931 28 300 17.7 24.1 0.00 0.00 0.00 79 1003.0
20260506234831 28 286 17.7 22.5 0.00 0.00 0.00 79 1002.9
20260506234731 28 300 17.7 22.5 0.00 0.00 0.00 79 1002.9
20260506234631 28 290 14.5 22.5 0.00 0.00 0.00 80 1002.8
20260506234530 28 281 11.3 22.5 0.00 0.00 0.00 80 1002.8
20260506234433 28 285 8.0 11.3 0.00 0.00 0.00 80 1002.7
20260506234333 28 257 6.4 11.3 0.00 0.00 0.00 80 1002.7
20260506234231 28 261 6.4 11.3 0.00 0.00 0.00 80 1002.7
20260506234132 28 259 6.4 11.3 0.00 0.00 0.00 80 1002.7
20260506234031 28 261 6.4 11.3 0.00 0.00 0.00 80 1002.7
20260506233931 28 261 6.4 11.3 0.00 0.00 0.00 80 1002.7
20260506233831 28 261 8.0 11.3 0.00 0.00 0.00 80 1002.7
20260506233732 28 262 6.4 11.3 0.00 0.00 0.00 80 1002.7
20260506233632 28 283 8.0 11.3 0.00 0.00 0.00 80 1002.7
20260506233531 28 293 9.7 11.3 0.00 0.00 0.00 80 1002.7
20260506233432 28 286 8.0 11.3 0.00 0.00 0.00 80 1002.6
20260506233331 28 292 8.0 14.5 0.00 0.00 0.00 80 1002.6
20260506233232 28 289 9.7 14.5 0.00 0.00 0.00 80 1002.6
20260506233132 28 290 9.7 14.5 0.00 0.00 0.00 80 1002.7
20260506233032 28 281 9.7 14.5 0.00 0.00 0.00 80 1002.6
20260506232933 28 293 8.0 14.5 0.00 0.00 0.00 80 1002.6
20260506232831 28 293 6.4 14.5 0.00 0.00 0.00 80 1002.6
20260506232722 28 296 6.4 14.5 0.00 0.00 0.00 80 1002.6
20260506232618 28 290 8.0 14.5 0.00 0.00 0.00 80 1002.5
20260506232514 28 288 9.7 14.5 0.00 0.00 0.00 80 1002.6
20260506232413 28 286 8.0 11.3 0.00 0.00 0.00 80 1002.6
20260506232313 28 302 6.4 11.3 0.00 0.00 0.00 79 1002.6
20260506232212 28 298 8.0 11.3 0.00 0.00 0.00 79 1002.7
20260506232110 29 285 6.4 11.3 0.00 0.00 0.00 79 1002.6
20260506232007 29 286 6.4 11.3 0.00 0.00 0.00 79 1002.7
20260506231905 29 296 8.0 11.3 0.00 0.00 0.00 79 1002.7
20260506231805 29 296 8.0 11.3 0.00 0.00 0.00 79 1002.6
20260506231707 29 286 8.0 11.3 0.00 0.00 0.00 78 1002.7
20260506231605 29 289 6.4 9.7 0.00 0.00 0.00 78 1002.7
20260506231506 29 293 6.4 9.7 0.00 0.00 0.00 78 1002.7
20260506231405 29 295 6.4 9.7 0.00 0.00 0.00 78 1002.6
20260506231305 29 290 6.4 9.7 0.00 0.00 0.00 77 1002.6
20260506231207 29 265 3.2 8.0 0.00 0.00 0.00 77 1002.5
20260506231106 29 265 3.2 8.0 0.00 0.00 0.00 77 1002.5
20260506231006 29 265 4.8 8.0 0.00 0.00 0.00 77 1002.5
20260506230906 29 265 4.8 8.0 0.00 0.00 0.00 77 1002.6
20260506230806 29 265 4.8 8.0 0.00 0.00 0.00 77 1002.6
20260506230707 29 265 6.4 8.0 0.00 0.00 0.00 77 1002.6
20260506230607 29 275 6.4 8.0 0.00 0.00 0.00 77 1002.6
20260506230505 29 276 4.8 8.0 0.00 0.00 0.00 77 1002.6
20260506230407 29 272 4.8 8.0 0.00 0.00 0.00 77 1002.5
20260506230305 29 266 6.4 9.7 0.00 0.00 0.00 77 1002.5
20260506230205 29 266 6.4 9.7 0.00 0.00 0.00 77 1002.5
20260506230108 29 271 4.8 9.7 0.00 0.00 0.00 77 1002.5
20260506230006 29 255 3.2 9.7 0.00 0.00 0.00 77 1002.5
20260506225905 29 255 3.2 9.7 0.00 0.00 0.00 77 1002.4
20260506225805 29 255 3.2 9.7 0.00 0.00 0.00 77 1002.5
20260506225705 29 255 4.8 9.7 0.00 0.00 0.00 77 1002.5
20260506225605 29 255 6.4 9.7 0.00 0.00 0.00 77 1002.5
20260506225505 29 257 6.4 9.7 0.00 0.00 0.00 77 1002.6
20260506225405 29 261 4.8 9.7 0.00 0.00 0.00 77 1002.6
20260506225307 29 276 4.8 9.7 0.00 0.00 0.00 77 1002.5
20260506225205 29 279 3.2 9.7 0.00 0.00 0.00 77 1002.5
20260506225105 29 282 3.2 9.7 0.00 0.00 0.00 77 1002.4
20260506225004 29 282 4.8 9.7 0.00 0.00 0.00 77 1002.5
20260506224905 29 282 6.4 9.7 0.00 0.00 0.00 77 1002.5
20260506224807 29 289 6.4 9.7 0.00 0.00 0.00 76 1002.4
20260506224706 29 276 6.4 9.7 0.00 0.00 0.00 77 1002.4
20260506224604 29 279 6.4 8.0 0.00 0.00 0.00 77 1002.5
20260506224504 29 281 4.8 8.0 0.00 0.00 0.00 77 1002.5
20260506224405 29 248 6.4 8.0 0.00 0.00 0.00 77 1002.5
20260506224304 29 248 6.4 8.0 0.00 0.00 0.00 77 1002.5
20260506224207 30 245 4.8 8.0 0.00 0.00 0.00 77 1002.5
20260506224106 29 251 4.8 8.0 0.00 0.00 0.00 77 1002.5
20260506224007 29 251 6.4 8.0 0.00 0.00 0.00 77 1002.5
20260506223907 29 254 6.4 8.0 0.00 0.00 0.00 76 1002.5
20260506223804 29 255 4.8 8.0 0.00 0.00 0.00 76 1002.5
20260506223705 29 254 4.8 8.0 0.00 0.00 0.00 76 1002.5
20260506223604 29 255 6.4 8.0 0.00 0.00 0.00 76 1002.5
20260506223505 29 255 6.4 8.0 0.00 0.00 0.00 76 1002.5
20260506223404 30 255 6.4 8.0 0.00 0.00 0.00 75 1002.4
20260506223305 30 257 6.4 8.0 0.00 0.00 0.00 76 1002.4
20260506223205 30 252 6.4 8.0 0.00 0.00 0.00 76 1002.4
20260506223106 30 244 4.8 6.4 0.00 0.00 0.00 76 1002.5
20260506223005 30 237 4.8 6.4 0.00 0.00 0.00 76 1002.5
20260506222905 30 235 3.2 6.4 0.00 0.00 0.00 76 1002.4
20260506222804 30 226 1.6 6.4 0.00 0.00 0.00 76 1002.4
20260506222704 30 223 1.6 6.4 0.00 0.00 0.00 76 1002.5
20260506222604 30 223 3.2 6.4 0.00 0.00 0.00 75 1002.5
20260506222507 30 221 3.2 6.4 0.00 0.00 0.00 75 1002.4
20260506222405 30 221 3.2 6.4 0.00 0.00 0.00 75 1002.4
20260506222306 30 217 3.2 6.4 0.00 0.00 0.00 75 1002.4
20260506222204 30 216 3.2 4.8 0.00 0.00 0.00 75 1002.5
20260506222104 30 216 3.2 4.8 0.00 0.00 0.00 75 1002.4
20260506222005 30 214 1.6 4.8 0.00 0.00 0.00 75 1002.5
20260506221905 30 214 1.6 4.8 0.00 0.00 0.00 75 1002.4
20260506221805 30 214 1.6 4.8 0.00 0.00 0.00 75 1002.4
20260506221705 30 219 3.2 4.8 0.00 0.00 0.00 75 1002.5
20260506221604 30 219 3.2 4.8 0.00 0.00 0.00 75 1002.4
20260506221504 30 220 3.2 8.0 0.00 0.00 0.00 75 1002.4
20260506221404 30 220 1.6 8.0 0.00 0.00 0.00 74 1002.4
20260506221304 30 220 1.6 8.0 0.00 0.00 0.00 74 1002.5
20260506221204 30 220 3.2 8.0 0.00 0.00 0.00 75 1002.4
20260506221104 30 220 1.6 8.0 0.00 0.00 0.00 76 1002.4
20260506221004 30 221 0.0 8.0 0.00 0.00 0.00 76 1002.4
20260506220904 30 221 1.6 8.0 0.00 0.00 0.00 76 1002.4
20260506220806 30 221 1.6 8.0 0.00 0.00 0.00 76 1002.4
20260506220703 30 221 3.2 8.0 0.00 0.00 0.00 75 1002.3
20260506220606 30 221 4.8 8.0 0.00 0.00 0.00 75 1002.3
20260506220504 30 199 3.2 6.4 0.00 0.00 0.00 75 1002.3
20260506220403 30 183 3.2 4.8 0.00 0.00 0.00 75 1002.3
20260506220303 30 183 3.2 4.8 0.00 0.00 0.00 75 1002.3
20260506220206 30 183 3.2 4.8 0.00 0.00 0.00 75 1002.3
20260506220104 30 186 3.2 4.8 0.00 0.00 0.00 75 1002.4
20260506220004 30 188 3.2 4.8 0.00 0.00 0.00 75 1002.3
20260506215904 30 193 3.2 4.8 0.00 0.00 0.00 75 1002.3
20260506215803 30 188 1.6 4.8 0.00 0.00 0.00 76 1002.3
20260506215704 30 189 3.2 4.8 0.00 0.00 0.00 76 1002.3
20260506215606 30 189 1.6 4.8 0.00 0.00 0.00 76 1002.3
20260506215505 30 162 1.6 6.4 0.00 0.00 0.00 76 1002.4
20260506215404 30 162 1.6 8.0 0.00 0.00 0.00 76 1002.3
20260506215306 30 188 0.0 8.0 0.00 0.00 0.00 75 1002.3
20260506215204 30 188 1.6 8.0 0.00 0.00 0.00 74 1002.3
20260506215104 30 188 1.6 8.0 0.00 0.00 0.00 74 1002.4
20260506215006 30 189 1.6 8.0 0.00 0.00 0.00 75 1002.3
20260506214904 30 189 1.6 8.0 0.00 0.00 0.00 75 1002.4
20260506214804 30 189 3.2 8.0 0.00 0.00 0.00 74 1002.3
20260506214704 30 189 3.2 8.0 0.00 0.00 0.00 74 1002.3
20260506214603 30 189 3.2 8.0 0.00 0.00 0.00 75 1002.3
20260506214504 30 171 3.2 8.0 0.00 0.00 0.00 76 1002.3
20260506214404 30 176 1.6 6.4 0.00 0.00 0.00 75 1002.4
20260506214303 30 176 3.2 6.4 0.00 0.00 0.00 75 1002.4
20260506214203 30 175 3.2 6.4 0.00 0.00 0.00 75 1002.4
20260506214103 29 176 3.2 6.4 0.00 0.00 0.00 76 1002.4
20260506214004 29 173 3.2 6.4 0.00 0.00 0.00 76 1002.4
20260506213903 29 173 3.2 6.4 0.00 0.00 0.00 76 1002.4
20260506213804 29 182 3.2 8.0 0.00 0.00 0.00 77 1002.4
20260506213703 29 182 3.2 8.0 0.00 0.00 0.00 77 1002.4
20260506213603 29 176 1.6 8.0 0.00 0.00 0.00 77 1002.4
20260506213504 29 178 4.8 8.0 0.00 0.00 0.00 77 1002.4
20260506213404 29 142 3.2 8.0 0.00 0.00 0.00 77 1002.4
20260506213303 29 204 3.2 8.0 0.00 0.00 0.00 77 1002.4
20260506213204 29 210 3.2 8.0 0.00 0.00 0.00 77 1002.4
20260506213103 29 210 3.2 8.0 0.00 0.00 0.00 76 1002.4
20260506213004 29 217 3.2 8.0 0.00 0.00 0.00 76 1002.5
20260506212904 29 219 4.8 8.0 0.00 0.00 0.00 76 1002.5
20260506212804 29 200 4.8 6.4 0.00 0.00 0.00 76 1002.5
20260506212703 29 214 3.2 6.4 0.00 0.00 0.00 77 1002.5
20260506212603 29 196 1.6 6.4 0.00 0.00 0.00 77 1002.6
20260506212505 29 195 3.2 6.4 0.00 0.00 0.00 76 1002.4
20260506212403 29 195 3.2 6.4 0.00 0.00 0.00 76 1002.4
20260506212306 29 193 3.2 6.4 0.00 0.00 0.00 76 1002.5
20260506212204 29 193 3.2 6.4 0.00 0.00 0.00 76 1002.5
20260506212103 29 193 3.2 8.0 0.00 0.00 0.00 76 1002.5
20260506212004 29 195 3.2 8.0 0.00 0.00 0.00 76 1002.5
20260506211903 29 202 1.6 8.0 0.00 0.00 0.00 76 1002.5
20260506211804 29 202 1.6 8.0 0.00 0.00 0.00 76 1002.5
20260506211702 29 202 3.2 8.0 0.00 0.00 0.00 76 1002.6
20260506211605 29 197 1.6 8.0 0.00 0.00 0.00 75 1002.5
20260506211505 29 197 3.2 8.0 0.00 0.00 0.00 75 1002.4
20260506211400 30 188 4.8 8.0 0.00 0.00 0.00 76 1002.5
20260506211252 30 178 4.8 8.0 0.00 0.00 0.00 76 1002.5
20260506211151 30 219 3.2 8.0 0.00 0.00 0.00 76 1002.4
20260506211049 30 178 1.6 8.0 0.00 0.00 0.00 75 1002.4
20260506210943 30 178 1.6 8.0 0.00 0.00 0.00 75 1002.3
20260506210834 30 178 3.2 8.0 0.00 0.00 0.00 75 1002.4
20260506210731 30 178 4.8 8.0 0.00 0.00 0.00 76 1002.4
20260506210631 30 165 3.2 8.0 0.00 0.00 0.00 77 1002.4
20260506210530 30 169 4.8 6.4 0.00 0.00 0.00 77 1002.4
20260506210432 30 165 3.2 6.4 0.00 0.00 0.00 77 1002.4
20260506210332 30 219 3.2 6.4 0.00 0.00 0.00 77 1002.4
20260506210231 30 185 4.8 6.4 0.00 0.00 0.00 77 1002.4
20260506210132 30 193 4.8 6.4 0.00 0.00 0.00 77 1002.4
20260506210031 29 214 3.2 6.4 0.00 0.00 0.00 77 1002.4
20260506205933 29 188 3.2 4.8 0.00 0.00 0.00 76 1002.4
20260506205831 29 186 3.2 4.8 0.00 0.00 0.00 77 1002.5
20260506205723 29 193 3.2 4.8 0.00 0.00 0.00 76 1002.5
20260506205617 29 193 3.2 4.8 0.00 0.00 0.00 76 1002.6
20260506205516 29 192 3.2 4.8 0.00 0.00 0.00 76 1002.6
20260506205416 29 161 3.2 4.8 0.00 0.00 0.00 78 1002.5
20260506205307 29 164 3.2 6.4 0.00 0.00 0.00 78 1002.6
20260506205203 29 159 1.6 6.4 0.00 0.00 0.00 78 1002.6
20260506205104 29 157 1.6 6.4 0.00 0.00 0.00 78 1002.5
20260506205003 29 157 1.6 6.4 0.00 0.00 0.00 78 1002.6
20260506204903 28 157 1.6 6.4 0.00 0.00 0.00 78 1002.7
20260506204803 28 164 3.2 6.4 0.00 0.00 0.00 78 1002.6
20260506204702 28 164 3.2 6.4 0.00 0.00 0.00 78 1002.7
20260506204602 28 164 3.2 8.0 0.00 0.00 0.00 78 1002.8
20260506204503 28 162 3.2 9.7 0.00 0.00 0.00 78 1002.8
20260506204403 28 161 4.8 9.7 0.00 0.00 0.00 78 1002.8
20260506204303 28 185 3.2 9.7 0.00 0.00 0.00 78 1002.8
20260506204202 28 149 0.0 9.7 0.00 0.00 0.00 78 1002.8
20260506204102 28 185 1.6 9.7 0.00 0.00 0.00 78 1002.8
20260506204002 28 185 3.2 9.7 0.00 0.00 0.00 77 1002.9
20260506203901 28 175 3.2 9.7 0.00 0.00 0.00 78 1002.8
20260506203756 28 147 4.8 9.7 0.00 0.00 0.00 77 1002.8
20260506203648 29 134 4.8 9.7 0.00 0.00 0.00 77 1002.8
20260506203547 29 173 4.8 9.7 0.00 0.00 0.00 77 1002.9
20260506203445 29 162 4.8 8.0 0.00 0.00 0.00 77 1002.8
20260506203344 29 155 6.4 8.0 0.00 0.00 0.00 77 1002.8
20260506203245 29 140 4.8 8.0 0.00 0.00 0.00 77 1002.8
20260506203143 29 128 4.8 14.5 0.00 0.00 0.00 77 1002.8
20260506203039 29 171 4.8 14.5 0.00 0.00 0.00 77 1002.8
20260506202936 29 102 4.8 14.5 0.00 0.00 0.00 77 1002.8
20260506202833 29 176 4.8 14.5 0.00 0.00 0.00 77 1002.9
20260506202732 29 161 3.2 14.5 0.00 0.00 0.00 77 1002.9
20260506202625 29 168 3.2 14.5 0.00 0.00 0.00 77 1002.9
20260506202521 29 145 3.2 14.5 0.00 0.00 0.00 77 1002.9
20260506202418 29 148 3.2 14.5 0.00 0.00 0.00 77 1002.9
20260506202318 29 144 4.8 14.5 0.00 0.00 0.00 76 1002.9
20260506202203 29 135 4.8 14.5 0.00 0.00 0.00 76 1002.9
20260506202102 29 154 4.8 8.0 0.00 0.00 0.00 76 1003.0
20260506202004 29 147 3.2 6.4 0.00 0.00 0.00 76 1003.0
20260506201903 29 133 3.2 6.4 0.00 0.00 0.00 76 1003.0
20260506201802 29 159 3.2 6.4 0.00 0.00 0.00 76 1002.9
20260506201703 29 157 4.8 6.4 0.00 0.00 0.00 76 1003.0
20260506201602 29 151 3.2 9.7 0.00 0.00 0.00 76 1003.0
20260506201502 29 151 1.6 9.7 0.00 0.00 0.00 76 1003.0
20260506201404 29 151 0.0 9.7 0.00 0.00 0.00 76 1002.9
20260506201303 29 190 0.0 9.7 0.00 0.00 0.00 76 1003.0
20260506201203 29 190 0.0 9.7 0.00 0.00 0.00 76 1002.9
20260506201103 29 190 1.6 9.7 0.00 0.00 0.00 76 1002.9
20260506201004 29 190 1.6 9.7 0.00 0.00 0.00 76 1003.0
20260506200902 29 190 3.2 9.7 0.00 0.00 0.00 76 1003.0
20260506200803 29 190 4.8 9.7 0.00 0.00 0.00 76 1003.0
20260506200702 29 216 3.2 9.7 0.00 0.00 0.00 76 1003.0
20260506200602 29 188 3.2 8.0 0.00 0.00 0.00 76 1003.0
20260506200505 29 188 3.2 8.0 0.00 0.00 0.00 76 1003.0
20260506200402 29 188 3.2 8.0 0.00 0.00 0.00 75 1003.0
20260506200303 29 189 4.8 8.0 0.00 0.00 0.00 75 1003.0
20260506200203 29 224 4.8 8.0 0.00 0.00 0.00 76 1003.0
20260506200004 29 209 6.4 8.0 0.00 0.00 0.00 76 1003.1
20260506195902 29 195 4.8 8.0 0.00 0.00 0.00 76 1003.1
20260506195803 29 228 3.2 8.0 0.00 0.00 0.00 77 1003.1
20260506195703 29 243 3.2 6.4 0.00 0.00 0.00 77 1003.0
20260506195603 29 245 3.2 6.4 0.00 0.00 0.00 76 1003.0
20260506195503 29 182 3.2 6.4 0.00 0.00 0.00 76 1003.0
20260506195402 29 206 4.8 8.0 0.00 0.00 0.00 76 1003.1
20260506195305 29 212 4.8 8.0 0.00 0.00 0.00 76 1003.1
20260506195202 29 173 1.6 8.0 0.00 0.00 0.00 77 1003.1
20260506195103 29 169 1.6 8.0 0.00 0.00 0.00 77 1003.1
20260506195004 29 168 1.6 8.0 0.00 0.00 0.00 77 1003.2
20260506194902 29 169 3.2 8.0 0.00 0.00 0.00 77 1003.1
20260506194802 29 169 3.2 8.0 0.00 0.00 0.00 77 1003.0
20260506194702 29 172 4.8 8.0 0.00 0.00 0.00 77 1003.1
20260506194602 28 152 4.8 8.0 0.00 0.00 0.00 77 1003.1
20260506194503 28 155 4.8 8.0 0.00 0.00 0.00 77 1003.1
20260506194401 28 159 3.2 6.4 0.00 0.00 0.00 78 1003.1
20260506194303 28 168 3.2 8.0 0.00 0.00 0.00 78 1003.2
20260506194203 28 169 3.2 8.0 0.00 0.00 0.00 78 1003.1
20260506194103 28 157 3.2 8.0 0.00 0.00 0.00 78 1003.2
20260506194002 28 155 3.2 8.0 0.00 0.00 0.00 77 1003.2
20260506193901 28 145 3.2 8.0 0.00 0.00 0.00 77 1003.2
20260506193804 28 145 4.8 8.0 0.00 0.00 0.00 77 1003.2
20260506193702 29 142 4.8 8.0 0.00 0.00 0.00 78 1003.2
20260506193603 29 147 3.2 8.0 0.00 0.00 0.00 78 1003.2
20260506193502 29 133 4.8 8.0 0.00 0.00 0.00 79 1003.2
20260506193402 29 109 3.2 8.0 0.00 0.00 0.00 79 1003.2
20260506193302 28 110 1.6 6.4 0.00 0.00 0.00 79 1003.2
20260506193203 28 110 3.2 6.4 0.00 0.00 0.00 79 1003.2
20260506193102 28 104 3.2 6.4 0.00 0.00 0.00 79 1003.2
20260506193002 28 100 3.2 6.4 0.00 0.00 0.00 79 1003.2
20260506192902 28 128 1.6 6.4 0.00 0.00 0.00 79 1003.2
20260506192801 28 128 1.6 6.4 0.00 0.00 0.00 79 1003.2
20260506192703 28 128 1.6 8.0 0.00 0.00 0.00 79 1003.2
20260506192602 28 127 1.6 8.0 0.00 0.00 0.00 80 1003.3
20260506192503 28 127 3.2 8.0 0.00 0.00 0.00 80 1003.3
20260506192402 28 127 1.6 8.0 0.00 0.00 0.00 81 1003.3
20260506192305 28 127 1.6 8.0 0.00 0.00 0.00 81 1003.3
20260506192202 28 127 3.2 8.0 0.00 0.00 0.00 81 1003.3
20260506192103 28 125 3.2 8.0 0.00 0.00 0.00 81 1003.3
20260506192002 28 125 4.8 8.0 0.00 0.00 0.00 81 1003.4
20260506191902 28 125 6.4 8.0 0.00 0.00 0.00 81 1003.4
20260506191802 28 121 6.4 8.0 0.00 0.00 0.00 81 1003.4
20260506191703 28 133 4.8 8.0 0.00 0.00 0.00 82 1003.4
20260506191602 28 137 3.2 8.0 0.00 0.00 0.00 81 1003.5
20260506191502 28 137 4.8 8.0 0.00 0.00 0.00 81 1003.5
20260506191402 28 140 4.8 8.0 0.00 0.00 0.00 80 1003.5
20260506191302 28 148 4.8 8.0 0.00 0.00 0.00 80 1003.5
20260506191201 28 151 6.4 8.0 0.00 0.00 0.00 80 1003.5
20260506191102 28 161 4.8 8.0 0.00 0.00 0.00 79 1003.5
20260506191003 28 161 4.8 8.0 0.00 0.00 0.00 79 1003.5
20260506190904 28 158 4.8 8.0 0.00 0.00 0.00 79 1003.6
20260506190802 28 157 3.2 8.0 0.00 0.00 0.00 79 1003.6
20260506190704 28 138 4.8 8.0 0.00 0.00 0.00 78 1003.6
20260506190602 28 134 6.4 9.7 0.00 0.00 0.00 77 1003.6
20260506190502 28 180 4.8 9.7 0.00 0.00 0.00 77 1003.6
20260506190404 28 166 4.8 11.3 0.00 0.00 0.00 77 1003.6
20260506190302 29 135 6.4 11.3 0.00 0.00 0.00 77 1003.6
20260506190203 29 124 6.4 11.3 0.00 0.00 0.00 77 1003.6
20260506190002 29 120 6.4 11.3 0.00 0.00 0.00 77 1003.5
20260506185902 29 176 6.4 16.1 0.00 0.00 0.00 76 1003.6
20260506185802 29 155 6.4 16.1 0.00 0.00 0.00 77 1003.6
20260506185704 29 162 6.4 16.1 0.00 0.00 0.00 76 1003.6
20260506185602 29 114 9.7 16.1 0.00 0.00 0.00 76 1003.6
20260506185502 29 114 9.7 16.1 0.00 0.00 0.00 76 1003.5
20260506185404 29 104 6.4 16.1 0.00 0.00 0.00 78 1003.6
20260506185306 29 138 3.2 16.1 0.00 0.00 0.00 78 1003.6
20260506185203 29 128 4.8 16.1 0.00 0.00 0.00 78 1003.7
20260506185103 29 127 9.7 16.1 0.00 0.00 0.00 77 1003.7
20260506185002 29 109 11.3 16.1 0.00 0.00 0.00 77 1003.6
20260506184902 28 103 6.4 14.5 0.00 0.00 0.00 77 1003.6
20260506184802 28 120 4.8 8.0 0.00 0.00 0.00 78 1003.6
20260506184703 28 123 4.8 8.0 0.00 0.00 0.00 78 1003.6
20260506184603 28 123 3.2 8.0 0.00 0.00 0.00 78 1003.7
20260506184502 28 138 0.0 8.0 0.00 0.00 0.00 78 1003.7
20260506184402 28 140 1.6 9.7 0.00 0.00 0.00 79 1003.7
20260506184302 28 135 3.2 9.7 0.00 0.00 0.00 80 1003.7
20260506184203 28 135 3.2 9.7 0.00 0.00 0.00 80 1003.8
20260506184101 28 183 1.6 9.7 0.00 0.00 0.00 79 1003.8
20260506184004 28 185 3.2 9.7 0.00 0.00 0.00 79 1003.8
20260506183902 28 185 3.2 9.7 0.00 0.00 0.00 79 1003.8
20260506183803 28 192 4.8 9.7 0.00 0.00 0.00 79 1003.8
20260506183703 28 196 4.8 9.7 0.00 0.00 0.00 79 1003.8
20260506183604 28 106 6.4 9.7 0.00 0.00 0.00 79 1003.8
20260506183503 28 106 6.4 9.7 0.00 0.00 0.00 80 1003.7
20260506183402 28 110 6.4 8.0 0.00 0.00 0.00 80 1003.8
20260506183303 28 110 4.8 8.0 0.00 0.00 0.00 81 1003.8
20260506183203 28 124 3.2 6.4 0.00 0.00 0.00 80 1003.8
20260506183104 28 123 3.2 6.4 0.00 0.00 0.00 80 1003.8
20260506183002 28 123 3.2 6.4 0.00 0.00 0.00 80 1003.8
20260506182904 28 123 3.2 6.4 0.00 0.00 0.00 81 1003.9
20260506182802 28 123 0.0 6.4 0.00 0.00 0.00 81 1003.9
20260506182703 28 117 1.6 6.4 0.00 0.00 0.00 81 1003.9
20260506182603 28 117 3.2 6.4 0.00 0.00 0.00 81 1003.9
20260506182502 27 117 1.6 6.4 0.00 0.00 0.00 81 1003.9
20260506182402 27 117 1.6 6.4 0.00 0.00 0.00 81 1004.0
20260506182306 27 117 3.2 6.4 0.00 0.00 0.00 81 1004.0
20260506182202 27 117 3.2 6.4 0.00 0.00 0.00 81 1004.0
20260506182103 27 117 4.8 6.4 0.00 0.00 0.00 82 1004.1
20260506182001 27 117 3.2 6.4 0.00 0.00 0.00 82 1004.1
20260506181902 27 118 3.2 6.4 0.00 0.00 0.00 82 1004.1
20260506181802 27 114 3.2 6.4 0.00 0.00 0.00 82 1004.1
20260506181702 27 113 3.2 6.4 0.00 0.00 0.00 82 1004.1
20260506181604 27 110 3.2 6.4 0.00 0.00 0.00 81 1004.1
20260506181503 27 110 4.8 6.4 0.00 0.00 0.00 81 1004.2
20260506181403 27 110 4.8 6.4 0.00 0.00 0.00 81 1004.2
20260506181303 27 109 4.8 6.4 0.00 0.00 0.00 82 1004.2
20260506181202 27 110 1.6 8.0 0.00 0.00 0.00 82 1004.3
20260506181103 27 110 1.6 9.7 0.00 0.00 0.00 82 1004.3
20260506181003 27 110 3.2 9.7 0.00 0.00 0.00 82 1004.3
20260506180901 27 110 1.6 9.7 0.00 0.00 0.00 82 1004.3
20260506180802 27 110 1.6 9.7 0.00 0.00 0.00 82 1004.3
20260506180702 27 110 1.6 9.7 0.00 0.00 0.00 82 1004.4
20260506180603 27 110 1.6 9.7 0.00 0.00 0.00 82 1004.4
20260506180503 27 107 1.6 9.7 0.00 0.00 0.00 82 1004.4
20260506180402 27 107 3.2 9.7 0.00 0.00 0.00 82 1004.3
20260506180302 27 107 3.2 9.7 0.00 0.00 0.00 82 1004.4
20260506180203 27 106 1.6 9.7 0.00 0.00 0.00 82 1004.4
20260506180103 27 165 1.6 6.4 0.00 0.00 0.00 81 1004.5
20260506180003 27 165 3.2 6.4 0.00 0.00 0.00 81 1004.5
20260506175901 27 171 1.6 6.4 0.00 0.00 0.00 81 1004.5
20260506175803 27 172 1.6 4.8 0.00 0.00 0.00 81 1004.6
20260506175702 27 172 0.0 3.2 0.00 0.00 0.00 82 1004.6
20260506175602 27 172 1.6 3.2 0.00 0.00 0.00 82 1004.6
20260506175504 27 172 1.6 3.2 0.00 0.00 0.00 82 1004.7
20260506175402 27 172 3.2 3.2 0.00 0.00 0.00 82 1004.6
20260506175306 27 173 1.6 3.2 0.00 0.00 0.00 82 1004.7
20260506175204 27 176 0.0 3.2 0.00 0.00 0.00 82 1004.7
20260506175101 27 176 0.0 3.2 0.00 0.00 0.00 82 1004.7
20260506175002 27 176 0.0 3.2 0.00 0.00 0.00 82 1004.8
20260506174903 27 176 0.0 3.2 0.00 0.00 0.00 82 1004.7
20260506174802 27 176 1.6 3.2 0.00 0.00 0.00 82 1004.8
20260506174703 27 176 1.6 3.2 0.00 0.00 0.00 82 1004.7
20260506174601 27 175 1.6 3.2 0.00 0.00 0.00 82 1004.7
20260506174503 27 175 1.6 1.6 0.00 0.00 0.00 83 1004.8
20260506174404 -17 0.0 0.0 0.00 0.00 0.00 1004.7
20260506174304 -17 0.0 0.0 0.00 0.00 0.00 1004.7
20260506174203 27 178 1.6 3.2 0.00 0.00 0.00 83 1004.8
20260506174105 27 178 1.6 3.2 0.00 0.00 0.00 83 1004.9
20260506174003 27 178 1.6 3.2 0.00 0.00 0.00 83 1004.9
20260506173904 27 178 1.6 3.2 0.00 0.00 0.00 83 1004.9
20260506173803 27 178 1.6 6.4 0.00 0.00 0.00 83 1004.9
20260506173704 27 178 1.6 6.4 0.00 0.00 0.00 83 1004.9
20260506173604 27 178 1.6 6.4 0.00 0.00 0.00 83 1004.9
20260506173503 27 178 1.6 6.4 0.00 0.00 0.00 83 1004.9
20260506173403 27 178 1.6 6.4 0.00 0.00 0.00 83 1005.0
20260506173303 27 178 1.6 6.4 0.00 0.00 0.00 83 1005.0
20260506173203 27 178 0.0 6.4 0.00 0.00 0.00 82 1005.0
20260506173104 27 178 0.0 6.4 0.00 0.00 0.00 83 1005.1
20260506173003 27 178 1.6 6.4 0.00 0.00 0.00 83 1005.1
20260506172901 27 178 3.2 6.4 0.00 0.00 0.00 83 1005.2
20260506172803 27 227 3.2 4.8 0.00 0.00 0.00 83 1005.2
20260506172704 27 164 3.2 4.8 0.00 0.00 0.00 83 1005.2
20260506172603 27 157 3.2 4.8 0.00 0.00 0.00 83 1005.2
20260506172502 27 155 3.2 4.8 0.00 0.00 0.00 83 1005.1
20260506172403 27 149 0.0 3.2 0.00 0.00 0.00 84 1005.1
20260506172306 27 149 0.0 4.8 0.00 0.00 0.00 84 1005.2
20260506172202 27 148 1.6 4.8 0.00 0.00 0.00 84 1005.2
20260506172103 27 148 0.0 4.8 0.00 0.00 0.00 84 1005.2
20260506172003 27 148 0.0 6.4 0.00 0.00 0.00 84 1005.2
20260506171901 27 148 0.0 6.4 0.00 0.00 0.00 84 1005.2
20260506171803 27 148 0.0 6.4 0.00 0.00 0.00 84 1005.2
20260506171703 27 148 0.0 6.4 0.00 0.00 0.00 84 1005.2
20260506171604 27 148 1.6 6.4 0.00 0.00 0.00 84 1005.2
20260506171504 27 148 1.6 6.4 0.00 0.00 0.00 83 1005.2
20260506171403 27 148 1.6 6.4 0.00 0.00 0.00 83 1005.2
20260506171303 27 148 3.2 6.4 0.00 0.00 0.00 84 1005.1
20260506171204 27 145 3.2 6.4 0.00 0.00 0.00 84 1005.2
20260506171104 27 148 3.2 6.4 0.00 0.00 0.00 84 1005.2
20260506171003 27 131 3.2 9.7 0.00 0.00 0.00 84 1005.2
20260506170902 26 131 4.8 9.7 0.00 0.00 0.00 84 1005.2
20260506170802 26 131 3.2 9.7 0.00 0.00 0.00 84 1005.2
20260506170702 26 131 1.6 9.7 0.00 0.00 0.00 84 1005.2
20260506170604 26 130 3.2 9.7 0.00 0.00 0.00 85 1005.1
20260506170503 26 125 3.2 11.3 0.00 0.00 0.00 85 1005.2
20260506170401 26 125 3.2 11.3 0.00 0.00 0.00 85 1005.2
20260506170301 26 124 4.8 11.3 0.00 0.00 0.00 84 1005.2
20260506170202 26 127 6.4 11.3 0.00 0.00 0.00 84 1005.2
20260506170104 26 123 6.4 11.3 0.00 0.00 0.00 85 1005.1
20260506170003 26 106 4.8 11.3 0.00 0.00 0.00 84 1005.1
20260506165902 26 110 4.8 11.3 0.00 0.00 0.00 85 1005.1
20260506165803 26 118 4.8 11.3 0.00 0.00 0.00 85 1005.1
20260506165703 26 104 4.8 11.3 0.00 0.00 0.00 85 1005.1
20260506165602 26 103 4.8 11.3 0.00 0.00 0.00 85 1005.1
20260506165504 26 138 6.4 9.7 0.00 0.00 0.00 85 1005.1
20260506165402 26 118 6.4 14.5 0.00 0.00 0.00 85 1005.1
20260506165305 26 123 6.4 14.5 0.00 0.00 0.00 85 1005.1
20260506165203 26 114 8.0 14.5 0.00 0.00 0.00 85 1005.1
20260506165102 26 128 8.0 14.5 0.00 0.00 0.00 85 1005.1
20260506165004 26 107 6.4 14.5 0.00 0.00 0.00 85 1005.2
20260506164904 26 145 6.4 14.5 0.00 0.00 0.00 84 1005.2
20260506164804 26 116 6.4 14.5 0.00 0.00 0.00 84 1005.2
20260506164703 26 120 6.4 14.5 0.00 0.00 0.00 84 1005.1
20260506164601 26 118 8.0 14.5 0.00 0.00 0.00 84 1005.1
20260506164504 26 104 8.0 14.5 0.00 0.00 0.00 84 1005.0
20260506164403 26 109 6.4 8.0 0.00 0.00 0.00 84 1005.1
20260506164303 26 120 6.4 11.3 0.00 0.00 0.00 84 1005.1
20260506164203 26 121 4.8 11.3 0.00 0.00 0.00 84 1005.2
20260506164103 26 125 3.2 11.3 0.00 0.00 0.00 84 1005.2
20260506164003 26 128 3.2 11.3 0.00 0.00 0.00 83 1005.2
20260506163904 26 128 4.8 11.3 0.00 0.00 0.00 83 1005.2
20260506163803 26 127 4.8 11.3 0.00 0.00 0.00 83 1005.2
20260506163704 26 113 6.4 11.3 0.00 0.00 0.00 83 1005.1
20260506163603 26 148 6.4 11.3 0.00 0.00 0.00 83 1005.1
20260506163504 27 121 6.4 11.3 0.00 0.00 0.00 83 1005.1
20260506163403 27 103 6.4 11.3 0.00 0.00 0.00 83 1005.1
20260506163303 27 111 4.8 11.3 0.00 0.00 0.00 83 1005.1
20260506163203 27 128 4.8 11.3 0.00 0.00 0.00 82 1005.0
20260506163104 27 148 4.8 11.3 0.00 0.00 0.00 82 1005.1
20260506163003 27 131 3.2 11.3 0.00 0.00 0.00 82 1005.1
20260506162902 27 128 8.0 11.3 0.00 0.00 0.00 82 1005.0
20260506162804 27 103 9.7 11.3 0.00 0.00 0.00 82 1005.0
20260506162702 27 107 8.0 11.3 0.00 0.00 0.00 82 1005.0
20260506162603 27 107 4.8 11.3 0.00 0.00 0.00 82 1005.1
20260506162503 27 147 3.2 11.3 0.00 0.00 0.00 82 1005.2
20260506162402 27 148 3.2 11.3 0.00 0.00 0.00 82 1005.1
20260506162302 27 140 3.2 11.3 0.00 0.00 0.00 82 1005.1
20260506162201 27 128 3.2 11.3 0.00 0.00 0.00 82 1005.0
20260506162103 27 113 3.2 11.3 0.00 0.00 0.00 82 1005.0
20260506162004 27 113 4.8 11.3 0.00 0.00 0.00 82 1004.9
20260506161904 27 102 8.0 11.3 0.00 0.00 0.00 82 1005.0
20260506161803 27 102 8.0 11.3 0.00 0.00 0.00 82 1005.0
20260506161703 27 109 8.0 11.3 0.00 0.00 0.00 82 1005.0
20260506161603 27 130 6.4 8.0 0.00 0.00 0.00 82 1004.9
20260506161503 27 124 6.4 8.0 0.00 0.00 0.00 82 1004.8
20260506161403 27 117 3.2 9.7 0.00 0.00 0.00 82 1004.8
20260506161304 27 166 3.2 9.7 0.00 0.00 0.00 82 1004.7
20260506161202 27 166 3.2 9.7 0.00 0.00 0.00 82 1004.6
20260506161104 27 151 3.2 9.7 0.00 0.00 0.00 82 1004.6
20260506161002 27 152 4.8 9.7 0.00 0.00 0.00 82 1004.6
20260506160903 27 142 6.4 9.7 0.00 0.00 0.00 82 1004.6
20260506160803 27 123 4.8 9.7 0.00 0.00 0.00 83 1004.6
20260506160704 27 141 4.8 9.7 0.00 0.00 0.00 83 1004.6
20260506160603 27 142 6.4 9.7 0.00 0.00 0.00 83 1004.5
20260506160504 27 140 6.4 9.7 0.00 0.00 0.00 83 1004.5
20260506160403 27 135 6.4 8.0 0.00 0.00 0.00 83 1004.6
20260506160302 27 141 4.8 9.7 0.00 0.00 0.00 82 1004.6
20260506160204 27 120 6.4 9.7 0.00 0.00 0.00 82 1004.6
20260506160004 27 130 6.4 9.7 0.00 0.00 0.00 83 1004.7
20260506155903 27 171 6.4 9.7 0.00 0.00 0.00 83 1004.6
20260506155802 27 128 6.4 9.7 0.00 0.00 0.00 83 1004.7
20260506155704 26 116 4.8 9.7 0.00 0.00 0.00 83 1004.6
20260506155603 26 109 4.8 9.7 0.00 0.00 0.00 83 1004.6
20260506155503 26 109 6.4 9.7 0.00 0.00 0.00 83 1004.6
20260506155403 26 109 4.8 9.7 0.00 0.00 0.00 83 1004.6
20260506155306 26 107 3.2 8.0 0.00 0.00 0.00 84 1004.6
20260506155202 26 145 1.6 8.0 0.00 0.00 0.00 84 1004.6
20260506155102 26 145 1.6 8.0 0.00 0.00 0.00 84 1004.6
20260506155004 26 145 0.0 8.0 0.00 0.00 0.00 84 1004.7
20260506154904 26 125 1.6 8.0 0.00 0.00 0.00 84 1004.7
20260506154803 26 125 3.2 8.0 0.00 0.00 0.00 84 1004.7
20260506154702 26 127 4.8 8.0 0.00 0.00 0.00 84 1004.7
20260506154602 26 128 4.8 8.0 0.00 0.00 0.00 84 1004.7
20260506154505 26 131 4.8 8.0 0.00 0.00 0.00 84 1004.7
20260506154404 26 140 3.2 8.0 0.00 0.00 0.00 84 1004.7
20260506154302 26 145 3.2 8.0 0.00 0.00 0.00 84 1004.6
20260506154203 26 144 4.8 8.0 0.00 0.00 0.00 84 1004.6
20260506154101 26 140 4.8 8.0 0.00 0.00 0.00 84 1004.7
20260506154003 26 125 6.4 8.0 0.00 0.00 0.00 84 1004.6
20260506153903 26 127 3.2 8.0 0.00 0.00 0.00 84 1004.7
20260506153802 26 137 3.2 6.4 0.00 0.00 0.00 84 1004.7
20260506153703 26 148 0.0 6.4 0.00 0.00 0.00 84 1004.7
20260506153602 26 151 0.0 6.4 0.00 0.00 0.00 84 1004.6
20260506153504 26 151 1.6 6.4 0.00 0.00 0.00 84 1004.6
20260506153401 26 149 1.6 6.4 0.00 0.00 0.00 84 1004.6
20260506153304 26 151 1.6 6.4 0.00 0.00 0.00 84 1004.6
20260506153202 26 151 3.2 6.4 0.00 0.00 0.00 84 1004.6
20260506153103 26 149 3.2 6.4 0.00 0.00 0.00 84 1004.6
20260506153004 26 130 3.2 6.4 0.00 0.00 0.00 84 1004.5
20260506152903 26 130 3.2 6.4 0.00 0.00 0.00 84 1004.6
20260506152803 26 130 1.6 9.7 0.00 0.00 0.00 84 1004.5
20260506152703 26 130 3.2 9.7 0.00 0.00 0.00 85 1004.5
20260506152604 26 142 3.2 9.7 0.00 0.00 0.00 85 1004.6
20260506152503 26 144 3.2 9.7 0.00 0.00 0.00 85 1004.6
20260506152403 26 144 1.6 9.7 0.00 0.00 0.00 85 1004.6
20260506152305 26 144 1.6 9.7 0.00 0.00 0.00 85 1004.5
20260506152203 26 144 4.8 9.7 0.00 0.00 0.00 85 1004.5
20260506152103 26 144 4.8 9.7 0.00 0.00 0.00 85 1004.4
20260506152005 26 142 6.4 9.7 0.00 0.00 0.00 85 1004.3
20260506151904 26 116 6.4 9.7 0.00 0.00 0.00 85 1004.4
20260506151803 26 103 6.4 9.7 0.00 0.00 0.00 85 1004.5
20260506151704 26 107 4.8 8.0 0.00 0.00 0.00 85 1004.5
20260506151603 26 131 3.2 8.0 0.00 0.00 0.00 85 1004.5
20260506151504 26 135 4.8 9.7 0.00 0.00 0.00 85 1004.5
20260506151402 26 124 6.4 9.7 0.00 0.00 0.00 85 1004.5
20260506151303 26 128 3.2 9.7 0.00 0.00 0.00 85 1004.4
20260506151202 26 148 3.2 9.7 0.00 0.00 0.00 85 1004.4
20260506151102 26 148 3.2 9.7 0.00 0.00 0.00 85 1004.3
20260506151004 26 158 1.6 9.7 0.00 0.00 0.00 85 1004.2
20260506150904 26 145 3.2 9.7 0.00 0.00 0.00 85 1004.2
20260506150802 26 144 4.8 9.7 0.00 0.00 0.00 85 1004.2
20260506150702 26 157 4.8 9.7 0.00 0.00 0.00 85 1004.3
20260506150602 26 152 6.4 9.7 0.00 0.00 0.00 85 1004.2
20260506150503 26 121 6.4 9.7 0.00 0.00 0.00 85 1004.2
20260506150404 26 110 6.4 9.7 0.00 0.00 0.00 85 1004.2
20260506150305 26 127 4.8 9.7 0.00 0.00 0.00 85 1004.1
20260506150203 26 161 3.2 9.7 0.00 0.00 0.00 85 1004.2
20260506150004 26 151 1.6 9.7 0.00 0.00 0.00 85 1004.2
20260506145904 26 141 1.6 9.7 0.00 0.00 0.00 86 1004.2
20260506145803 26 141 3.2 9.7 0.00 0.00 0.00 86 1004.1
20260506145703 26 128 6.4 9.7 0.00 0.00 0.00 86 1004.1
20260506145602 26 111 4.8 11.3 0.00 0.00 0.00 86 1004.1
20260506145503 26 130 3.2 11.3 0.00 0.00 0.00 86 1004.1
20260506145404 26 161 3.2 14.5 0.00 0.00 0.00 86 1004.0
20260506145305 26 142 1.6 14.5 0.00 0.00 0.00 86 1004.1
20260506145202 26 165 4.8 14.5 0.00 0.00 0.00 86 1004.1
20260506145103 26 151 3.2 14.5 0.00 0.00 0.00 87 1004.1
20260506145002 26 117 1.6 14.5 0.00 0.00 0.00 86 1004.2
20260506144903 26 116 4.8 14.5 0.00 0.00 0.00 86 1004.1
20260506144803 26 113 9.7 14.5 0.00 0.00 0.00 86 1004.1
20260506144703 26 102 9.7 14.5 0.00 0.00 0.00 86 1004.1
20260506144603 26 106 11.3 14.5 0.00 0.00 0.00 86 1004.0
20260506144504 26 107 8.0 14.5 0.00 0.00 0.00 87 1004.0
20260506144404 26 104 6.4 14.5 0.00 0.00 0.00 87 1004.0
20260506144304 26 104 4.8 14.5 0.00 0.00 0.00 87 1003.9
20260506144202 26 100 4.8 14.5 0.00 0.00 0.00 87 1004.0
20260506144103 26 135 6.4 17.7 0.00 0.00 0.00 87 1004.0
20260506144003 26 137 8.0 17.7 0.00 0.00 0.00 87 1003.9
20260506143905 26 92 6.4 17.7 0.00 0.00 0.00 87 1003.9
20260506143803 26 116 6.4 17.7 0.00 0.00 0.00 87 1003.9
20260506143703 26 127 4.8 17.7 0.00 0.00 0.00 87 1003.8
20260506143602 26 127 6.4 17.7 0.00 0.00 0.00 88 1003.8
20260506143506 26 148 8.0 17.7 0.00 0.00 0.00 88 1003.8
20260506143404 26 140 6.4 17.7 0.00 0.00 0.00 87 1003.7
20260506143303 26 134 8.0 17.7 0.00 0.00 0.00 87 1003.7
20260506143202 25 113 11.3 17.7 0.00 0.00 0.00 87 1003.7
20260506143103 25 99 11.3 16.1 0.00 0.00 0.00 87 1003.6
20260506143005 25 106 11.3 16.1 0.00 0.00 0.00 88 1003.6
20260506142902 25 106 11.3 16.1 0.00 0.00 0.00 88 1003.6
20260506142802 25 103 11.3 16.1 0.00 0.00 0.00 88 1003.6
20260506142704 25 104 9.7 14.5 0.00 0.00 0.00 88 1003.5
20260506142603 25 110 9.7 17.7 0.00 0.00 0.00 88 1003.6
20260506142504 25 86 9.7 17.7 0.00 0.00 0.00 88 1003.6
20260506142402 25 116 9.7 17.7 0.00 0.00 0.00 88 1003.5
20260506142302 25 102 9.7 17.7 0.00 0.00 0.00 88 1003.6
20260506142203 25 107 8.0 17.7 0.00 0.00 0.00 88 1003.6
20260506142102 25 106 8.0 17.7 0.00 0.00 0.00 88 1003.6
20260506142004 25 111 9.7 17.7 0.00 0.00 0.00 88 1003.6
20260506141903 25 106 9.7 17.7 0.00 0.00 0.00 88 1003.6
20260506141802 25 111 9.7 17.7 0.00 0.00 0.00 88 1003.7
20260506141704 25 97 11.3 17.7 0.00 0.00 0.00 88 1003.6
20260506141602 25 109 9.7 16.1 0.00 0.00 0.00 88 1003.6
20260506141503 25 117 8.0 16.1 0.00 0.00 0.00 88 1003.7
20260506141403 25 111 8.0 14.5 0.00 0.00 0.00 88 1003.6
20260506141304 25 149 8.0 14.5 0.00 0.00 0.00 88 1003.7
20260506141202 25 106 6.4 11.3 0.00 0.00 0.00 88 1003.7
20260506141102 25 158 6.4 11.3 0.00 0.00 0.00 89 1003.8
20260506141003 25 117 6.4 11.3 0.00 0.00 0.00 89 1003.8
20260506140904 25 140 3.2 11.3 0.00 0.00 0.00 89 1003.8
20260506140803 25 124 1.6 11.3 0.00 0.00 0.00 89 1003.8
20260506140701 25 124 3.2 11.3 0.00 0.00 0.00 89 1003.8
20260506140604 25 123 6.4 11.3 0.00 0.00 0.00 89 1003.8
20260506140502 25 118 6.4 11.3 0.00 0.00 0.00 89 1003.8
20260506140403 25 111 6.4 11.3 0.00 0.00 0.00 89 1003.8
20260506140301 25 109 8.0 11.3 0.00 0.00 0.00 89 1003.8
20260506140154 25 104 6.4 11.3 0.00 0.00 0.00 89 1003.8
20260506140052 25 103 4.8 11.3 0.00 0.00 0.00 89 1003.8
20260506135951 25 103 6.4 11.3 0.00 0.00 0.00 89 1003.8
20260506135851 25 99 6.4 11.3 0.00 0.00 0.00 89 1003.9
20260506135752 25 120 8.0 11.3 0.00 0.00 0.00 90 1003.9
20260506135650 25 113 6.4 11.3 0.00 0.00 0.00 90 1003.9
20260506135551 25 96 3.2 9.7 0.00 0.00 0.00 90 1003.9
20260506135449 25 173 3.2 9.7 0.00 0.00 0.00 90 1003.9
20260506135350 25 118 1.6 9.7 0.00 0.00 0.00 90 1003.9
20260506135251 25 110 1.6 9.7 0.00 0.00 0.00 90 1003.9
20260506135150 25 110 3.2 9.7 0.00 0.00 0.00 90 1003.8
20260506135051 25 110 6.4 9.7 0.00 0.00 0.00 90 1003.8
20260506134951 25 104 4.8 9.7 0.00 0.00 0.00 90 1003.8
20260506134851 25 109 4.8 9.7 0.00 0.00 0.00 90 1003.8
20260506134750 25 107 3.2 9.7 0.00 0.00 0.00 90 1003.7
20260506134650 25 116 3.2 9.7 0.00 0.00 0.00 90 1003.8
20260506134549 25 110 4.8 9.7 0.00 0.00 0.00 90 1003.8
20260506134449 25 152 4.8 9.7 0.00 0.00 0.00 90 1003.7
20260506134349 25 130 4.8 9.7 0.00 0.00 0.00 91 1003.8
20260506134249 25 138 4.8 9.7 0.00 0.00 0.00 91 1003.9
20260506134149 25 133 6.4 9.7 0.00 0.00 0.00 91 1003.8
20260506134050 25 121 6.4 9.7 0.00 0.00 0.00 91 1003.8
20260506133950 25 103 6.4 9.7 0.00 0.00 0.00 91 1003.8
20260506133850 25 109 8.0 9.7 0.00 0.00 0.00 91 1003.8
20260506133751 25 117 6.4 9.7 0.00 0.00 0.00 91 1003.8
20260506133651 25 128 6.4 9.7 0.00 0.00 0.00 91 1003.8
20260506133550 25 142 6.4 9.7 0.00 0.00 0.00 91 1003.8
20260506133450 25 133 6.4 9.7 0.00 0.00 0.00 91 1003.8
20260506133350 25 137 4.8 8.0 0.00 0.00 0.00 91 1003.8
20260506133249 25 135 3.2 8.0 0.00 0.00 0.00 91 1003.9
20260506133149 25 137 3.2 8.0 0.00 0.00 0.00 91 1004.0
20260506133051 25 137 3.2 8.0 0.00 0.00 0.00 91 1003.9
20260506132951 25 138 3.2 8.0 0.00 0.00 0.00 91 1003.9
20260506132849 25 127 3.2 9.7 0.00 0.00 0.00 91 1003.9
20260506132749 24 131 3.2 9.7 0.00 0.00 0.00 91 1003.9
20260506132650 24 131 3.2 9.7 0.00 0.00 0.00 91 1003.8
20260506132549 24 125 6.4 9.7 0.00 0.00 0.00 91 1003.9
20260506132449 24 116 6.4 9.7 0.00 0.00 0.00 91 1003.8
20260506132350 24 116 6.4 9.7 0.00 0.00 0.00 91 1003.9
20260506132250 24 110 3.2 9.7 0.00 0.00 0.00 92 1003.8
20260506132150 24 110 3.2 9.7 0.00 0.00 0.00 92 1003.9
20260506132050 24 109 6.4 9.7 0.00 0.00 0.00 92 1003.9
20260506131950 24 111 6.4 9.7 0.00 0.00 0.00 92 1003.9
20260506131847 24 99 4.8 8.0 0.00 0.00 0.00 92 1004.0
20260506131742 24 120 4.8 8.0 0.00 0.00 0.00 91 1004.1
20260506131640 24 140 4.8 8.0 0.00 0.00 0.00 91 1004.1
20260506131539 24 125 3.2 8.0 0.00 0.00 0.00 91 1004.1
20260506131431 24 161 3.2 8.0 0.00 0.00 0.00 91 1004.1
20260506131331 24 149 3.2 8.0 0.00 0.00 0.00 92 1004.1
20260506131233 24 148 3.2 8.0 0.00 0.00 0.00 92 1004.2
20260506131131 24 123 4.8 8.0 0.00 0.00 0.00 92 1004.1
20260506131032 24 118 3.2 8.0 0.00 0.00 0.00 92 1004.1
20260506130924 24 144 1.6 8.0 0.00 0.00 0.00 92 1004.1
20260506130824 24 144 3.2 8.0 0.00 0.00 0.00 92 1004.1
20260506130722 24 142 4.8 8.0 0.00 0.00 0.00 92 1004.0
20260506130617 24 171 4.8 8.0 0.00 0.00 0.00 92 1004.1
20260506130517 24 145 3.2 8.0 0.00 0.00 0.00 92 1004.1
20260506130412 24 124 3.2 8.0 0.00 0.00 0.00 92 1004.0
20260506130303 24 123 4.8 8.0 0.00 0.00 0.00 92 1004.0
20260506130203 24 123 4.8 8.0 0.00 0.00 0.00 92 1003.9
20260506130003 24 109 6.4 8.0 0.00 0.00 0.00 92 1004.0
20260506125903 24 118 4.8 8.0 0.00 0.00 0.00 92 1004.0
20260506125803 24 118 4.8 8.0 0.00 0.00 0.00 92 1004.0
20260506125703 24 118 4.8 8.0 0.00 0.00 0.00 92 1004.0
20260506125603 24 172 3.2 11.3 0.00 0.00 0.00 92 1004.0
20260506125502 24 120 4.8 11.3 0.00 0.00 0.00 92 1004.0
20260506125402 24 117 4.8 11.3 0.00 0.00 0.00 92 1004.0
20260506125305 24 118 4.8 11.3 0.00 0.00 0.00 92 1004.0
20260506125204 24 118 4.8 11.3 0.00 0.00 0.00 92 1004.0
20260506125104 24 157 4.8 11.3 0.00 0.00 0.00 92 1003.9
20260506125002 24 111 3.2 11.3 0.00 0.00 0.00 92 1003.9
20260506124903 24 104 3.2 11.3 0.00 0.00 0.00 92 1003.9
20260506124804 24 104 6.4 11.3 0.00 0.00 0.00 92 1004.0
20260506124703 24 102 4.8 11.3 0.00 0.00 0.00 92 1004.0
20260506124602 24 100 3.2 11.3 0.00 0.00 0.00 92 1003.9
20260506124502 24 123 3.2 11.3 0.00 0.00 0.00 92 1004.0
20260506124403 24 118 6.4 11.3 0.00 0.00 0.00 92 1004.0
20260506124304 24 118 4.8 11.3 0.00 0.00 0.00 92 1004.0
20260506124203 24 109 4.8 11.3 0.00 0.00 0.00 92 1004.0
20260506124102 24 114 4.8 11.3 0.00 0.00 0.00 92 1003.9
20260506124002 24 114 6.4 11.3 0.00 0.00 0.00 92 1004.0
20260506123903 24 106 6.4 11.3 0.00 0.00 0.00 92 1003.9
20260506123803 24 104 6.4 11.3 0.00 0.00 0.00 92 1003.9
20260506123703 24 103 6.4 11.3 0.00 0.00 0.00 92 1003.8
20260506123604 24 113 4.8 11.3 0.00 0.00 0.00 92 1003.9
20260506123502 24 134 3.2 11.3 0.00 0.00 0.00 92 1003.9
20260506123402 24 124 6.4 11.3 0.00 0.00 0.00 92 1003.9
20260506123303 24 123 6.4 11.3 0.00 0.00 0.00 92 1003.8
20260506123202 24 107 6.4 11.3 0.00 0.00 0.00 92 1003.9
20260506123103 24 118 4.8 9.7 0.00 0.00 0.00 92 1003.9
20260506123004 24 113 3.2 9.7 0.00 0.00 0.00 92 1003.8
20260506122903 24 107 4.8 9.7 0.00 0.00 0.00 92 1003.8
20260506122804 24 140 6.4 9.7 0.00 0.00 0.00 92 1003.7
20260506122705 24 138 4.8 9.7 0.00 0.00 0.00 92 1003.8
20260506122602 24 120 3.2 9.7 0.00 0.00 0.00 92 1003.7
20260506122504 24 123 4.8 9.7 0.00 0.00 0.00 92 1003.7
20260506122404 24 120 6.4 9.7 0.00 0.00 0.00 92 1003.8
20260506122302 24 130 3.2 6.4 0.00 0.00 0.00 92 1003.8
20260506122203 24 137 3.2 4.8 0.00 0.00 0.00 92 1003.8
20260506122102 24 137 3.2 6.4 0.00 0.00 0.00 92 1003.7
20260506122005 24 138 3.2 6.4 0.00 0.00 0.00 92 1003.7
20260506121904 24 138 1.6 6.4 0.00 0.00 0.00 92 1003.8
20260506121802 23 140 1.6 6.4 0.00 0.00 0.00 92 1003.7
20260506121702 23 140 3.2 6.4 0.00 0.00 0.00 92 1003.8
20260506121603 24 140 3.2 6.4 0.00 0.00 0.00 92 1003.7
20260506121503 23 140 3.2 6.4 0.00 0.00 0.00 92 1003.7
20260506121404 24 140 3.2 6.4 0.00 0.00 0.00 92 1003.7
20260506121316 23 140 3.2 6.4 0.00 0.00 0.00 92 1003.7
20260506121203 23 140 1.6 6.4 0.00 0.00 0.00 92 1003.7
20260506121103 23 145 0.0 4.8 0.00 0.00 0.00 92 1003.6
20260506121006 23 145 1.6 4.8 0.00 0.00 0.00 92 1003.6
20260506120904 23 145 1.6 4.8 0.00 0.00 0.00 92 1003.5
20260506120801 23 145 3.2 4.8 0.00 0.00 0.00 92 1003.5
20260506120703 23 145 3.2 4.8 0.00 0.00 0.00 92 1003.6
20260506120604 23 145 1.6 4.8 0.00 0.00 0.00 92 1003.5
20260506120505 23 145 0.0 4.8 0.00 0.00 0.00 92 1003.6
20260506120403 23 159 0.0 4.8 0.00 0.00 0.00 92 1003.5
20260506120304 23 162 0.0 4.8 0.00 0.00 0.00 92 1003.5
20260506120201 23 162 0.0 8.0 0.00 0.00 0.00 92 1003.5
20260506120004 23 162 1.6 8.0 0.00 0.00 0.00 92 1003.5
20260506115902 23 162 3.2 8.0 0.00 0.00 0.00 92 1003.5
20260506115801 23 162 1.6 8.0 0.00 0.00 0.00 92 1003.5
20260506115702 23 166 0.0 8.0 0.00 0.00 0.00 92 1003.4
20260506115603 23 168 1.6 8.0 0.00 0.00 0.00 92 1003.4
20260506115502 23 169 1.6 8.0 0.00 0.00 0.00 92 1003.4
20260506115402 23 172 3.2 8.0 0.00 0.00 0.00 92 1003.4
20260506115306 23 165 4.8 8.0 0.00 0.00 0.00 92 1003.4
20260506115203 23 159 3.2 6.4 0.00 0.00 0.00 92 1003.4
20260506115103 23 175 3.2 8.0 0.00 0.00 0.00 92 1003.4
20260506115003 23 165 3.2 8.0 0.00 0.00 0.00 92 1003.4
20260506114902 23 166 1.6 8.0 0.00 0.00 0.00 92 1003.4
20260506114802 23 168 0.0 8.0 0.00 0.00 0.00 92 1003.4
20260506114702 23 155 1.6 8.0 0.00 0.00 0.00 92 1003.4
20260506114604 23 152 3.2 8.0 0.00 0.00 0.00 92 1003.3
20260506114503 23 152 3.2 8.0 0.00 0.00 0.00 92 1003.4
20260506114403 23 154 4.8 8.0 0.00 0.00 0.00 92 1003.3
20260506114304 23 172 4.8 8.0 0.00 0.00 0.00 92 1003.3
20260506114202 23 106 3.2 8.0 0.00 0.00 0.00 92 1003.3
20260506114104 23 165 3.2 6.4 0.00 0.00 0.00 92 1003.3
20260506114003 23 168 3.2 9.7 0.00 0.00 0.00 92 1003.3
20260506113902 23 149 3.2 9.7 0.00 0.00 0.00 92 1003.4
20260506113803 23 147 3.2 9.7 0.00 0.00 0.00 92 1003.4
20260506113704 23 172 3.2 9.7 0.00 0.00 0.00 92 1003.4
20260506113603 23 173 3.2 9.7 0.00 0.00 0.00 92 1003.3
20260506113503 23 176 3.2 9.7 0.00 0.00 0.00 92 1003.2
20260506113402 23 178 3.2 9.7 0.00 0.00 0.00 92 1003.3
20260506113303 23 124 3.2 9.7 0.00 0.00 0.00 92 1003.2
20260506113204 23 168 4.8 9.7 0.00 0.00 0.00 92 1003.2
20260506113102 23 109 4.8 9.7 0.00 0.00 0.00 92 1003.1
20260506113003 23 151 3.2 9.7 0.00 0.00 0.00 92 1003.1
20260506112902 23 154 3.2 9.7 0.00 0.00 0.00 92 1003.1
20260506112804 23 158 4.8 9.7 0.00 0.00 0.00 92 1003.1
20260506112703 23 149 3.2 9.7 0.00 0.00 0.00 92 1003.1
20260506112603 23 151 3.2 8.0 0.00 0.00 0.00 92 1003.1
20260506112504 23 155 3.2 8.0 0.00 0.00 0.00 92 1003.1
20260506112403 23 157 4.8 8.0 0.00 0.00 0.00 92 1003.2
20260506112305 23 162 4.8 8.0 0.00 0.00 0.00 92 1003.2
20260506112203 23 169 1.6 4.8 0.00 0.00 0.00 92 1003.2
20260506112103 23 169 1.6 4.8 0.00 0.00 0.00 92 1003.2
20260506112004 23 171 1.6 4.8 0.00 0.00 0.00 92 1003.1
20260506111903 23 171 1.6 4.8 0.00 0.00 0.00 92 1003.1
20260506111802 23 172 1.6 6.4 0.00 0.00 0.00 92 1003.2
20260506111703 23 172 1.6 6.4 0.00 0.00 0.00 92 1003.2
20260506111602 23 182 3.2 6.4 0.00 0.00 0.00 92 1003.1
20260506111503 23 207 3.2 6.4 0.00 0.00 0.00 92 1003.2
20260506111405 23 207 3.2 6.4 0.00 0.00 0.00 92 1003.1
20260506111304 23 162 1.6 6.4 0.00 0.00 0.00 92 1003.1
20260506111203 23 162 1.6 6.4 0.00 0.00 0.00 92 1003.1
20260506111102 23 154 1.6 6.4 0.00 0.00 0.00 92 1003.0
20260506111004 23 155 3.2 6.4 0.00 0.00 0.00 92 1002.9
20260506110903 23 154 3.2 6.4 0.00 0.00 0.00 92 1002.9
20260506110802 23 148 3.2 6.4 0.00 0.00 0.00 92 1002.9
20260506110703 23 148 3.2 6.4 0.00 0.00 0.00 92 1002.9